Observation data for Throckmorton on 02/13/2018      Previous  Date  Next       Current Mesonet Observations  Soil Data  Daily Summary Page  Observations in Plain Language
KTH1 130600Z 12005KT 00/M04 A3036 RMK A01 T00021044  RH  072%=      5-min Rain = 0
KTH1 130601Z 12005KT 00/M04 A3036 RMK A01 T00021044  RH  071%=      5-min Rain = 0
KTH1 130602Z 11004KT 00/M04 A3036 RMK A01 T00021044  RH  071%=      5-min Rain = 0
KTH1 130603Z 11005KT 00/M04 A3036 RMK A01 T00021044  RH  071%=      5-min Rain = 0
KTH1 130604Z 11005KT 00/M04 A3036 RMK A01 T00021044  RH  071%=      5-min Rain = 0
KTH1 130605Z 12005KT 00/M04 A3036 RMK A01 T00021044  RH  071%=      5-min Rain = 0
KTH1 130606Z 12006KT 00/M04 A3036 RMK A01 T00021044  RH  071%=      5-min Rain = 0
KTH1 130607Z 12006KT 00/M04 A3036 RMK A01 T00021044  RH  071%=      5-min Rain = 0
KTH1 130608Z 12006KT 00/M04 A3036 RMK A01 T00021044  RH  071%=      5-min Rain = 0
KTH1 130609Z 12006KT 00/M04 A3035 RMK A01 T00021044  RH  071%=      5-min Rain = 0
KTH1 130610Z 13006KT 00/M04 A3035 RMK A01 T00021044  RH  071%=      5-min Rain = 0
KTH1 130611Z 13006KT 00/M05 A3035 RMK A01 T00011045  RH  071%=      5-min Rain = 0
KTH1 130612Z 13007KT 00/05 A3035 RMK A01 T00-00-45  RH  071%=      5-min Rain = 0
KTH1 130613Z 12007KT 00/05 A3035 RMK A01 T00-00-45  RH  072%=      5-min Rain = 0
KTH1 130614Z 12006KT M00/M05 A3035 RMK A01 T10011045  RH  072%=      5-min Rain = 0
KTH1 130615Z 12006KT M00/M05 A3035 RMK A01 T10021046  RH  072%=      5-min Rain = 0
KTH1 130616Z 12006KT M00/M05 A3035 RMK A01 T10021045  RH  072%=      5-min Rain = 0
KTH1 130617Z 12007KT M00/M05 A3035 RMK A01 T10021045  RH  073%=      5-min Rain = 0
KTH1 130618Z 12006KT M00/M05 A3035 RMK A01 T10021045  RH  073%=      5-min Rain = 0
KTH1 130619Z 12007KT M00/M05 A3035 RMK A01 T10021045  RH  073%=      5-min Rain = 0
KTH1 130620Z 12006KT M00/M05 A3035 RMK A01 T10021046  RH  073%=      5-min Rain = 0
KTH1 130621Z 12006KT M00/M05 A3035 RMK A01 T10021046  RH  073%=      5-min Rain = 0
KTH1 130622Z 12006KT M00/M05 A3035 RMK A01 T10031046  RH  073%=      5-min Rain = 0
KTH1 130623Z 12006KT M00/M05 A3035 RMK A01 T10031046  RH  073%=      5-min Rain = 0
KTH1 130624Z 12006KT M00/M05 A3035 RMK A01 T10031046  RH  073%=      5-min Rain = 0
KTH1 130625Z 12006KT M00/M05 A3035 RMK A01 T10031046  RH  073%=      5-min Rain = 0
KTH1 130626Z 12006KT M00/M05 A3035 RMK A01 T10041046  RH  073%=      5-min Rain = 0
KTH1 130627Z 12005KT M00/M05 A3035 RMK A01 T10041046  RH  073%=      5-min Rain = 0
KTH1 130628Z 12005KT M00/M05 A3035 RMK A01 T10041046  RH  073%=      5-min Rain = 0
KTH1 130629Z 12005KT M00/M05 A3035 RMK A01 T10041046  RH  073%=      5-min Rain = 0
KTH1 130630Z 12006KT M00/M05 A3035 RMK A01 T10041046  RH  074%=      5-min Rain = 0
KTH1 130631Z 12006KT M00/M05 A3035 RMK A01 T10041046  RH  074%=      5-min Rain = 0
KTH1 130632Z 12005KT M00/M05 A3035 RMK A01 T10041046  RH  074%=      5-min Rain = 0
KTH1 130633Z 12005KT M00/M05 A3035 RMK A01 T10041046  RH  074%=      5-min Rain = 0
KTH1 130634Z 12005KT M00/M05 A3035 RMK A01 T10041046  RH  074%=      5-min Rain = 0
KTH1 130635Z 12005KT M00/M05 A3035 RMK A01 T10041046  RH  074%=      5-min Rain = 0
KTH1 130636Z 12004KT M00/M05 A3035 RMK A01 T10041045  RH  074%=      5-min Rain = 0
KTH1 130637Z 12004KT M00/M05 A3035 RMK A01 T10041045  RH  074%=      5-min Rain = 0
KTH1 130638Z 12004KT M00/M05 A3035 RMK A01 T10041045  RH  073%=      5-min Rain = 0
KTH1 130639Z 12004KT M00/M05 A3035 RMK A01 T10041045  RH  074%=      5-min Rain = 0
KTH1 130640Z 12004KT M00/M05 A3035 RMK A01 T10041045  RH  074%=      5-min Rain = 0
KTH1 130641Z 13004KT M00/M05 A3035 RMK A01 T10041045  RH  074%=      5-min Rain = 0
KTH1 130642Z 12004KT M00/M05 A3035 RMK A01 T10041045  RH  074%=      5-min Rain = 0
KTH1 130643Z 12003KT M00/M05 A3035 RMK A01 T10041045  RH  074%=      5-min Rain = 0
KTH1 130644Z 12003KT M01/M05 A3035 RMK A01 T10051046  RH  074%=      5-min Rain = 0
KTH1 130645Z 12003KT M01/M05 A3035 RMK A01 T10051046  RH  074%=      5-min Rain = 0
KTH1 130646Z 12003KT M01/M05 A3035 RMK A01 T10061046  RH  074%=      5-min Rain = 0
KTH1 130647Z 12003KT M01/M05 A3035 RMK A01 T10061046  RH  074%=      5-min Rain = 0
KTH1 130648Z 12003KT M01/M05 A3035 RMK A01 T10061046  RH  074%=      5-min Rain = 0
KTH1 130649Z 11002KT M01/M05 A3035 RMK A01 T10061046  RH  075%=      5-min Rain = 0
KTH1 130650Z 11003KT M01/M05 A3035 RMK A01 T10061045  RH  075%=      5-min Rain = 0
KTH1 130651Z 11002KT M01/M05 A3035 RMK A01 T10061045  RH  075%=      5-min Rain = 0
KTH1 130652Z 11002KT M01/M05 A3035 RMK A01 T10061045  RH  075%=      5-min Rain = 0
KTH1 130653Z 11002KT M01/M05 A3035 RMK A01 T10061045  RH  075%=      5-min Rain = 0
KTH1 130654Z 10003KT M01/M05 A3035 RMK A01 T10061046  RH  075%=      5-min Rain = 0
KTH1 130655Z 10003KT M01/M05 A3035 RMK A01 T10061046  RH  075%=      5-min Rain = 0
KTH1 130656Z 11003KT M01/M05 A3035 RMK A01 T10061046  RH  074%=      5-min Rain = 0
KTH1 130657Z 11003KT M01/M05 A3035 RMK A01 T10071047  RH  074%=      5-min Rain = 0
KTH1 130658Z 10003KT M01/M05 A3035 RMK A01 T10071047  RH  074%=      5-min Rain = 0
KTH1 130659Z 10002KT M01/M05 A3035 RMK A01 T10071046  RH  075%=      5-min Rain = 0
KTH1 130700Z 09002KT M01/M05 A3035 RMK A01 T10081047  RH  075%=      5-min Rain = 0
KTH1 130701Z 10002KT M01/M05 A3035 RMK A01 T10081047  RH  075%=      5-min Rain = 0
KTH1 130702Z 10002KT M01/M05 A3035 RMK A01 T10081047  RH  075%=      5-min Rain = 0
KTH1 130703Z 11002KT M01/M05 A3035 RMK A01 T10091047  RH  075%=      5-min Rain = 0
KTH1 130704Z 11003KT M01/M05 A3035 RMK A01 T10091047  RH  075%=      5-min Rain = 0
KTH1 130705Z 11003KT M01/M05 A3035 RMK A01 T10091046  RH  076%=      5-min Rain = 0
KTH1 130706Z 10002KT M01/M05 A3035 RMK A01 T10091046  RH  076%=      5-min Rain = 0
KTH1 130707Z 11003KT M01/M05 A3035 RMK A01 T10091046  RH  076%=      5-min Rain = 0
KTH1 130708Z 10003KT M01/M05 A3035 RMK A01 T10091046  RH  076%=      5-min Rain = 0
KTH1 130709Z 10003KT M01/M05 A3035 RMK A01 T10091045  RH  076%=      5-min Rain = 0
KTH1 130710Z 11002KT M01/M05 A3035 RMK A01 T10091046  RH  076%=      5-min Rain = 0
KTH1 130711Z 11002KT M01/M05 A3035 RMK A01 T10081046  RH  076%=      5-min Rain = 0
KTH1 130712Z 10002KT M01/M05 A3035 RMK A01 T10091046  RH  076%=      5-min Rain = 0
KTH1 130713Z 10002KT M01/M05 A3035 RMK A01 T10091046  RH  076%=      5-min Rain = 0
KTH1 130714Z 10002KT M01/M05 A3035 RMK A01 T10091047  RH  076%=      5-min Rain = 0
KTH1 130715Z 10002KT M01/M05 A3035 RMK A01 T10101047  RH  076%=      5-min Rain = 0
KTH1 130716Z 10002KT M01/M05 A3035 RMK A01 T10101047  RH  076%=      5-min Rain = 0
KTH1 130717Z 10002KT M01/M05 A3035 RMK A01 T10111047  RH  076%=      5-min Rain = 0
KTH1 130718Z 10003KT M01/M05 A3035 RMK A01 T10111048  RH  076%=      5-min Rain = 0
KTH1 130719Z 10003KT M01/M05 A3035 RMK A01 T10121048  RH  076%=      5-min Rain = 0
KTH1 130720Z 10003KT M01/M05 A3035 RMK A01 T10121048  RH  076%=      5-min Rain = 0
KTH1 130721Z 10003KT M01/M05 A3035 RMK A01 T10121048  RH  077%=      5-min Rain = 0
KTH1 130722Z 10003KT M01/M05 A3035 RMK A01 T10121048  RH  077%=      5-min Rain = 0
KTH1 130723Z 10003KT M01/M05 A3035 RMK A01 T10121048  RH  077%=      5-min Rain = 0
KTH1 130724Z 10004KT M01/M05 A3035 RMK A01 T10121048  RH  077%=      5-min Rain = 0
KTH1 130725Z 09003KT M01/M05 A3035 RMK A01 T10121048  RH  077%=      5-min Rain = 0
KTH1 130726Z 10003KT M01/M05 A3035 RMK A01 T10121048  RH  076%=      5-min Rain = 0
KTH1 130727Z 10003KT M01/M05 A3035 RMK A01 T10121048  RH  076%=      5-min Rain = 0
KTH1 130728Z 10002KT M01/M05 A3035 RMK A01 T10111048  RH  076%=      5-min Rain = 0
KTH1 130729Z 10003KT M01/M05 A3035 RMK A01 T10121048  RH  076%=      5-min Rain = 0
KTH1 130730Z 10003KT M01/M05 A3035 RMK A01 T10121048  RH  076%=      5-min Rain = 0
KTH1 130731Z 10003KT M01/M05 A3035 RMK A01 T10121048  RH  077%=      5-min Rain = 0
KTH1 130732Z 10002KT M01/M05 A3035 RMK A01 T10131049  RH  076%=      5-min Rain = 0
KTH1 130733Z 10003KT M01/M05 A3035 RMK A01 T10131049  RH  077%=      5-min Rain = 0
KTH1 130734Z 11003KT M01/M05 A3035 RMK A01 T10131049  RH  077%=      5-min Rain = 0
KTH1 130735Z 11003KT M01/M05 A3035 RMK A01 T10141049  RH  077%=      5-min Rain = 0
KTH1 130736Z 10003KT M01/M05 A3035 RMK A01 T10141050  RH  077%=      5-min Rain = 0
KTH1 130737Z 10003KT M02/M05 A3035 RMK A01 T10151050  RH  077%=      5-min Rain = 0
KTH1 130738Z 11003KT M02/M05 A3035 RMK A01 T10151050  RH  077%=      5-min Rain = 0
KTH1 130739Z 11003KT M02/M05 A3035 RMK A01 T10151049  RH  078%=      5-min Rain = 0
KTH1 130740Z 10003KT M02/M05 A3035 RMK A01 T10151049  RH  078%=      5-min Rain = 0
KTH1 130741Z 10004KT M02/M05 A3035 RMK A01 T10151049  RH  078%=      5-min Rain = 0
KTH1 130742Z 10003KT M02/M05 A3035 RMK A01 T10151049  RH  078%=      5-min Rain = 0
KTH1 130743Z 10004KT M02/M05 A3035 RMK A01 T10161049  RH  078%=      5-min Rain = 0
KTH1 130744Z 10004KT M02/M05 A3035 RMK A01 T10151049  RH  078%=      5-min Rain = 0
KTH1 130745Z 11003KT M02/M05 A3035 RMK A01 T10151049  RH  078%=      5-min Rain = 0
KTH1 130746Z 10004KT M02/M05 A3035 RMK A01 T10151048  RH  078%=      5-min Rain = 0
KTH1 130747Z 10004KT M02/M05 A3035 RMK A01 T10151048  RH  078%=      5-min Rain = 0
KTH1 130748Z 11004KT M01/M05 A3035 RMK A01 T10141048  RH  078%=      5-min Rain = 0
KTH1 130749Z 11004KT M02/M05 A3035 RMK A01 T10151048  RH  078%=      5-min Rain = 0
KTH1 130750Z 10003KT M02/M05 A3035 RMK A01 T10151048  RH  078%=      5-min Rain = 0
KTH1 130751Z 11004KT M02/M05 A3035 RMK A01 T10151049  RH  078%=      5-min Rain = 0
KTH1 130752Z 10004KT M02/M05 A3034 RMK A01 T10151048  RH  078%=      5-min Rain = 0
KTH1 130753Z 10004KT M02/M05 A3034 RMK A01 T10151048  RH  078%=      5-min Rain = 0
KTH1 130754Z 11004KT M01/M05 A3034 RMK A01 T10141047  RH  078%=      5-min Rain = 0
KTH1 130755Z 11004KT M01/M05 A3034 RMK A01 T10141048  RH  078%=      5-min Rain = 0
KTH1 130756Z 11005KT M01/M05 A3034 RMK A01 T10141048  RH  078%=      5-min Rain = 0
KTH1 130757Z 10004KT M01/M05 A3034 RMK A01 T10141048  RH  078%=      5-min Rain = 0
KTH1 130758Z 10004KT M01/M05 A3034 RMK A01 T10141047  RH  078%=      5-min Rain = 0
KTH1 130759Z 11004KT M01/M05 A3034 RMK A01 T10141047  RH  078%=      5-min Rain = 0
KTH1 130800Z 10004KT M01/M05 A3034 RMK A01 T10141047  RH  078%=      5-min Rain = 0
KTH1 130801Z 11004KT M01/M05 A3034 RMK A01 T10131047  RH  078%=      5-min Rain = 0
KTH1 130802Z 11004KT M01/M05 A3034 RMK A01 T10131047  RH  078%=      5-min Rain = 0
KTH1 130803Z 11004KT M01/M05 A3035 RMK A01 T10131047  RH  078%=      5-min Rain = 0
KTH1 130804Z 11005KT M01/M05 A3035 RMK A01 T10131047  RH  078%=      5-min Rain = 0
KTH1 130805Z 11004KT M01/M05 A3035 RMK A01 T10131047  RH  078%=      5-min Rain = 0
KTH1 130806Z 12004KT M01/M05 A3035 RMK A01 T10131047  RH  078%=      5-min Rain = 0
KTH1 130807Z 11004KT M01/M05 A3035 RMK A01 T10131047  RH  078%=      5-min Rain = 0
KTH1 130808Z 11004KT M01/M05 A3034 RMK A01 T10131046  RH  078%=      5-min Rain = 0
KTH1 130809Z 11004KT M01/M05 A3034 RMK A01 T10131046  RH  078%=      5-min Rain = 0
KTH1 130810Z 11004KT M01/M05 A3034 RMK A01 T10131046  RH  078%=      5-min Rain = 0
KTH1 130811Z 11004KT M01/M05 A3034 RMK A01 T10131047  RH  078%=      5-min Rain = 0
KTH1 130812Z 11004KT M01/M05 A3034 RMK A01 T10131047  RH  078%=      5-min Rain = 0
KTH1 130813Z 11004KT M01/M05 A3034 RMK A01 T10131046  RH  078%=      5-min Rain = 0
KTH1 130814Z 11004KT M01/M05 A3034 RMK A01 T10131046  RH  078%=      5-min Rain = 0
KTH1 130815Z 11004KT M01/M05 A3034 RMK A01 T10131046  RH  078%=      5-min Rain = 0
KTH1 130816Z 12003KT M01/M05 A3034 RMK A01 T10131046  RH  078%=      5-min Rain = 0
KTH1 130817Z 11004KT M01/M05 A3034 RMK A01 T10131046  RH  078%=      5-min Rain = 0
KTH1 130818Z 11003KT M01/M05 A3034 RMK A01 T10131046  RH  078%=      5-min Rain = 0
KTH1 130819Z 12003KT M01/M05 A3034 RMK A01 T10131046  RH  079%=      5-min Rain = 0
KTH1 130820Z 11003KT M01/M05 A3034 RMK A01 T10131046  RH  078%=      5-min Rain = 0
KTH1 130821Z 11003KT M01/M05 A3034 RMK A01 T10141047  RH  078%=      5-min Rain = 0
KTH1 130822Z 12003KT M01/M05 A3034 RMK A01 T10141047  RH  078%=      5-min Rain = 0
KTH1 130823Z 13003KT M02/M05 A3034 RMK A01 T10151048  RH  078%=      5-min Rain = 0
KTH1 130824Z 12002KT M02/M05 A3034 RMK A01 T10161048  RH  078%=      5-min Rain = 0
KTH1 130825Z 12002KT M02/M05 A3034 RMK A01 T10161049  RH  078%=      5-min Rain = 0
KTH1 130826Z 12002KT M02/M05 A3034 RMK A01 T10171049  RH  079%=      5-min Rain = 0
KTH1 130827Z 11002KT M02/M05 A3034 RMK A01 T10181049  RH  079%=      5-min Rain = 0
KTH1 130828Z 12002KT M02/M05 A3034 RMK A01 T10181049  RH  080%=      5-min Rain = 0
KTH1 130829Z 11003KT M02/M05 A3034 RMK A01 T10181048  RH  080%=      5-min Rain = 0
KTH1 130830Z 10003KT M02/M05 A3034 RMK A01 T10181047  RH  081%=      5-min Rain = 0
KTH1 130831Z 10003KT M02/M05 A3034 RMK A01 T10181047  RH  081%=      5-min Rain = 0
KTH1 130832Z 11003KT M02/M05 A3034 RMK A01 T10181047  RH  081%=      5-min Rain = 0
KTH1 130833Z 10003KT M02/M05 A3034 RMK A01 T10181047  RH  080%=      5-min Rain = 0
KTH1 130834Z 11003KT M02/M05 A3034 RMK A01 T10181048  RH  080%=      5-min Rain = 0
KTH1 130835Z 11003KT M02/M05 A3034 RMK A01 T10181048  RH  080%=      5-min Rain = 0
KTH1 130836Z 11004KT M02/M05 A3034 RMK A01 T10181047  RH  081%=      5-min Rain = 0
KTH1 130837Z 11004KT M02/M05 A3034 RMK A01 T10171046  RH  081%=      5-min Rain = 0
KTH1 130838Z 11003KT M02/M05 A3034 RMK A01 T10161045  RH  081%=      5-min Rain = 0
KTH1 130839Z 11003KT M02/M05 A3034 RMK A01 T10161045  RH  080%=      5-min Rain = 0
KTH1 130840Z 11003KT M02/M05 A3034 RMK A01 T10161046  RH  080%=      5-min Rain = 0
KTH1 130841Z 11003KT M02/M05 A3034 RMK A01 T10161046  RH  080%=      5-min Rain = 0
KTH1 130842Z 11003KT M02/M05 A3034 RMK A01 T10161046  RH  080%=      5-min Rain = 0
KTH1 130843Z 11003KT M02/M05 A3034 RMK A01 T10161046  RH  080%=      5-min Rain = 0
KTH1 130844Z 10002KT M02/M05 A3034 RMK A01 T10161046  RH  080%=      5-min Rain = 0
KTH1 130845Z 11002KT M02/M05 A3034 RMK A01 T10161047  RH  080%=      5-min Rain = 0
KTH1 130846Z 10002KT M02/M05 A3034 RMK A01 T10171047  RH  080%=      5-min Rain = 0
KTH1 130847Z 10002KT M02/M05 A3034 RMK A01 T10171047  RH  080%=      5-min Rain = 0
KTH1 130848Z 09002KT M02/M05 A3034 RMK A01 T10181048  RH  080%=      5-min Rain = 0
KTH1 130849Z 09002KT M02/M05 A3034 RMK A01 T10181049  RH  080%=      5-min Rain = 0
KTH1 130850Z 10002KT M02/M05 A3034 RMK A01 T10191049  RH  080%=      5-min Rain = 0
KTH1 130851Z 10002KT M02/M05 A3034 RMK A01 T10201049  RH  080%=      5-min Rain = 0
KTH1 130852Z 10003KT M02/M05 A3034 RMK A01 T10201049  RH  081%=      5-min Rain = 0
KTH1 130853Z 10003KT M02/M05 A3034 RMK A01 T10201047  RH  082%=      5-min Rain = 0
KTH1 130854Z 09003KT M02/M05 A3034 RMK A01 T10201047  RH  082%=      5-min Rain = 0
KTH1 130855Z 09003KT M02/M05 A3034 RMK A01 T10191045  RH  082%=      5-min Rain = 0
KTH1 130856Z 09003KT M02/M05 A3033 RMK A01 T10181045  RH  082%=      5-min Rain = 0
KTH1 130857Z 10003KT M02/M05 A3033 RMK A01 T10171045  RH  082%=      5-min Rain = 0
KTH1 130858Z 10003KT M02/M05 A3033 RMK A01 T10171045  RH  081%=      5-min Rain = 0
KTH1 130859Z 10002KT M02/M05 A3033 RMK A01 T10171045  RH  081%=      5-min Rain = 0
KTH1 130900Z 11003KT M02/M05 A3033 RMK A01 T10171046  RH  081%=      5-min Rain = 0
KTH1 130901Z 11002KT M02/M05 A3033 RMK A01 T10171047  RH  080%=      5-min Rain = 0
KTH1 130902Z 10002KT M02/M05 A3033 RMK A01 T10181048  RH  080%=      5-min Rain = 0
KTH1 130903Z 11002KT M02/M05 A3033 RMK A01 T10191047  RH  081%=      5-min Rain = 0
KTH1 130904Z 11002KT M02/M05 A3033 RMK A01 T10191046  RH  081%=      5-min Rain = 0
KTH1 130905Z 11002KT M02/M05 A3033 RMK A01 T10191046  RH  082%=      5-min Rain = 0
KTH1 130906Z 11002KT M02/M05 A3034 RMK A01 T10201047  RH  082%=      5-min Rain = 0
KTH1 130907Z 10001KT M02/M05 A3034 RMK A01 T10201048  RH  082%=      5-min Rain = 0
KTH1 130908Z 10001KT M02/M05 A3034 RMK A01 T10211048  RH  081%=      5-min Rain = 0
KTH1 130909Z 10002KT M02/M05 A3033 RMK A01 T10211049  RH  082%=      5-min Rain = 0
KTH1 130910Z 09002KT M02/M05 A3033 RMK A01 T10221049  RH  082%=      5-min Rain = 0
KTH1 130911Z 09002KT M02/M05 A3033 RMK A01 T10221048  RH  082%=      5-min Rain = 0
KTH1 130912Z 09002KT M02/M05 A3033 RMK A01 T10231048  RH  083%=      5-min Rain = 0
KTH1 130913Z 09002KT M02/M05 A3033 RMK A01 T10231048  RH  083%=      5-min Rain = 0
KTH1 130914Z 09002KT M02/M05 A3033 RMK A01 T10231048  RH  083%=      5-min Rain = 0
KTH1 130915Z 08002KT M02/M05 A3033 RMK A01 T10231047  RH  084%=      5-min Rain = 0
KTH1 130916Z 07003KT M02/M05 A3033 RMK A01 T10231047  RH  084%=      5-min Rain = 0
KTH1 130917Z 08003KT M02/M05 A3033 RMK A01 T10231046  RH  084%=      5-min Rain = 0
KTH1 130918Z 07003KT M02/M05 A3033 RMK A01 T10221046  RH  084%=      5-min Rain = 0
KTH1 130919Z 07003KT M02/M05 A3033 RMK A01 T10211046  RH  084%=      5-min Rain = 0
KTH1 130920Z 07003KT M02/M05 A3033 RMK A01 T10211046  RH  083%=      5-min Rain = 0
KTH1 130921Z 07003KT M02/M05 A3033 RMK A01 T10211046  RH  083%=      5-min Rain = 0
KTH1 130922Z 08003KT M02/M05 A3033 RMK A01 T10211046  RH  083%=      5-min Rain = 0
KTH1 130923Z 08003KT M02/M05 A3033 RMK A01 T10211046  RH  083%=      5-min Rain = 0
KTH1 130924Z 08003KT M02/M05 A3033 RMK A01 T10211046  RH  083%=      5-min Rain = 0
KTH1 130925Z 08003KT M02/M05 A3033 RMK A01 T10201046  RH  083%=      5-min Rain = 0
KTH1 130926Z 08002KT M02/M05 A3033 RMK A01 T10201045  RH  083%=      5-min Rain = 0
KTH1 130927Z 09003KT M02/M04 A3033 RMK A01 T10191044  RH  083%=      5-min Rain = 0
KTH1 130928Z 08003KT M02/M04 A3033 RMK A01 T10181044  RH  083%=      5-min Rain = 0
KTH1 130929Z 08004KT M02/M04 A3033 RMK A01 T10181044  RH  083%=      5-min Rain = 0
KTH1 130930Z 09004KT M02/M04 A3033 RMK A01 T10181044  RH  082%=      5-min Rain = 0
KTH1 130931Z 10004KT M02/M04 A3033 RMK A01 T10181044  RH  082%=      5-min Rain = 0
KTH1 130932Z 09003KT M02/M04 A3033 RMK A01 T10181044  RH  082%=      5-min Rain = 0
KTH1 130933Z 10003KT M02/M05 A3033 RMK A01 T10181045  RH  082%=      5-min Rain = 0
KTH1 130934Z 10003KT M02/M05 A3033 RMK A01 T10191046  RH  082%=      5-min Rain = 0
KTH1 130935Z 10003KT M02/M05 A3033 RMK A01 T10201048  RH  082%=      5-min Rain = 0
KTH1 130936Z 10003KT M02/M05 A3033 RMK A01 T10221050  RH  081%=      5-min Rain = 0
KTH1 130937Z 10003KT M02/M05 A3033 RMK A01 T10231052  RH  081%=      5-min Rain = 0
KTH1 130938Z 12002KT M03/M05 A3033 RMK A01 T10251052  RH  081%=      5-min Rain = 0
KTH1 130939Z 12003KT M03/M05 A3033 RMK A01 T10261052  RH  082%=      5-min Rain = 0
KTH1 130940Z 12003KT M03/M05 A3033 RMK A01 T10261052  RH  082%=      5-min Rain = 0
KTH1 130941Z 13003KT M03/M05 A3033 RMK A01 T10271052  RH  083%=      5-min Rain = 0
KTH1 130942Z 13003KT M03/M05 A3033 RMK A01 T10281053  RH  083%=      5-min Rain = 0
KTH1 130943Z 12003KT M03/M05 A3033 RMK A01 T10281054  RH  083%=      5-min Rain = 0
KTH1 130944Z 12003KT M03/M05 A3033 RMK A01 T10291054  RH  083%=      5-min Rain = 0
KTH1 130945Z 11003KT M03/M05 A3033 RMK A01 T10301054  RH  083%=      5-min Rain = 0
KTH1 130946Z 11003KT M03/M05 A3033 RMK A01 T10301054  RH  084%=      5-min Rain = 0
KTH1 130947Z 12003KT M03/M06 A3033 RMK A01 T10311055  RH  084%=      5-min Rain = 0
KTH1 130948Z 13004KT M03/M05 A3033 RMK A01 T10321054  RH  084%=      5-min Rain = 0
KTH1 130949Z 13003KT M03/M05 A3033 RMK A01 T10321054  RH  085%=      5-min Rain = 0
KTH1 130950Z 13003KT M03/M05 A3033 RMK A01 T10311053  RH  085%=      5-min Rain = 0
KTH1 130951Z 13004KT M03/M05 A3033 RMK A01 T10321054  RH  085%=      5-min Rain = 0
KTH1 130952Z 14004KT M03/M05 A3034 RMK A01 T10321054  RH  085%=      5-min Rain = 0
KTH1 130953Z 14004KT M03/M05 A3034 RMK A01 T10321053  RH  085%=      5-min Rain = 0
KTH1 130954Z 14004KT M03/M05 A3034 RMK A01 T10321053  RH  086%=      5-min Rain = 0
KTH1 130955Z 14004KT M03/M05 A3034 RMK A01 T10321052  RH  086%=      5-min Rain = 0
KTH1 130956Z 15005KT M03/M05 A3034 RMK A01 T10321052  RH  086%=      5-min Rain = 0
KTH1 130957Z 15005KT M03/M05 A3034 RMK A01 T10311051  RH  086%=      5-min Rain = 0
KTH1 130958Z 14005KT M03/M05 A3034 RMK A01 T10311051  RH  086%=      5-min Rain = 0
KTH1 130959Z 14004KT M03/M05 A3034 RMK A01 T10311051  RH  086%=      5-min Rain = 0
KTH1 131000Z 15004KT M03/M05 A3034 RMK A01 T10301050  RH  086%=      5-min Rain = 0
KTH1 131001Z 16004KT M03/M05 A3034 RMK A01 T10301050  RH  086%=      5-min Rain = 0
KTH1 131002Z 16003KT M03/M05 A3034 RMK A01 T10301050  RH  086%=      5-min Rain = 0
KTH1 131003Z 16003KT M03/M05 A3034 RMK A01 T10301050  RH  086%=      5-min Rain = 0
KTH1 131004Z 16003KT M03/M05 A3034 RMK A01 T10301050  RH  086%=      5-min Rain = 0
KTH1 131005Z 17003KT M03/M05 A3034 RMK A01 T10301050  RH  086%=      5-min Rain = 0
KTH1 131006Z 17003KT M03/M05 A3034 RMK A01 T10301050  RH  086%=      5-min Rain = 0
KTH1 131007Z 18003KT M03/M05 A3034 RMK A01 T10301050  RH  086%=      5-min Rain = 0
KTH1 131008Z 18002KT M03/M05 A3034 RMK A01 T10301050  RH  086%=      5-min Rain = 0
KTH1 131009Z 18002KT M03/M05 A3034 RMK A01 T10291049  RH  086%=      5-min Rain = 0
KTH1 131010Z 17001KT M03/M05 A3034 RMK A01 T10291049  RH  086%=      5-min Rain = 0
KTH1 131011Z 16002KT M03/M05 A3034 RMK A01 T10291048  RH  086%=      5-min Rain = 0
KTH1 131012Z 15002KT M03/M05 A3034 RMK A01 T10291048  RH  086%=      5-min Rain = 0
KTH1 131013Z 13001KT M03/M05 A3034 RMK A01 T10281048  RH  086%=      5-min Rain = 0
KTH1 131014Z 08001KT M03/M05 A3034 RMK A01 T10281048  RH  086%=      5-min Rain = 0
KTH1 131015Z 06001KT M03/M05 A3034 RMK A01 T10281047  RH  086%=      5-min Rain = 0
KTH1 131016Z 02001KT M03/M05 A3034 RMK A01 T10271048  RH  086%=      5-min Rain = 0
KTH1 131017Z 03002KT M03/M05 A3034 RMK A01 T10281048  RH  086%=      5-min Rain = 0
KTH1 131018Z 05002KT M03/M05 A3034 RMK A01 T10271047  RH  086%=      5-min Rain = 0
KTH1 131019Z 04002KT M03/M05 A3034 RMK A01 T10271047  RH  086%=      5-min Rain = 0
KTH1 131020Z 05001KT M03/M05 A3034 RMK A01 T10261046  RH  086%=      5-min Rain = 0
KTH1 131021Z 06001KT M03/M05 A3034 RMK A01 T10251045  RH  087%=      5-min Rain = 0
KTH1 131022Z 06001KT M02/M04 A3034 RMK A01 T10241043  RH  087%=      5-min Rain = 0
KTH1 131023Z 09002KT M02/M04 A3034 RMK A01 T10241042  RH  087%=      5-min Rain = 0
KTH1 131024Z 11002KT M02/M04 A3034 RMK A01 T10231042  RH  087%=      5-min Rain = 0
KTH1 131025Z 11003KT M02/M04 A3034 RMK A01 T10221042  RH  086%=      5-min Rain = 0
KTH1 131026Z 12003KT M02/M04 A3034 RMK A01 T10211041  RH  086%=      5-min Rain = 0
KTH1 131027Z 14003KT M02/M04 A3035 RMK A01 T10201040  RH  086%=      5-min Rain = 0
KTH1 131028Z 12003KT M02/M04 A3035 RMK A01 T10191038  RH  087%=      5-min Rain = 0
KTH1 131029Z 10003KT M02/M04 A3034 RMK A01 T10171036  RH  087%=      5-min Rain = 0
KTH1 131030Z 09003KT M01/M03 A3034 RMK A01 T10141032  RH  088%=      5-min Rain = 0
KTH1 131031Z 09002KT M01/M03 A3034 RMK A01 T10111029  RH  088%=      5-min Rain = 0
KTH1 131032Z 08001KT M01/M03 A3034 RMK A01 T10081028  RH  087%=      5-min Rain = 0
KTH1 131033Z 09001KT M01/M03 A3034 RMK A01 T10071029  RH  086%=      5-min Rain = 0
KTH1 131034Z 08002KT M01/M03 A3034 RMK A01 T10071032  RH  083%=      5-min Rain = 0
KTH1 131035Z 05002KT M01/M04 A3034 RMK A01 T10091037  RH  081%=      5-min Rain = 0
KTH1 131036Z 06001KT M01/M04 A3034 RMK A01 T10111041  RH  080%=      5-min Rain = 0
KTH1 131037Z 09001KT M01/M04 A3034 RMK A01 T10121041  RH  081%=      5-min Rain = 0
KTH1 131038Z 08000KT M01/M04 A3034 RMK A01 T10131040  RH  082%=      5-min Rain = 0
KTH1 131039Z 02000KT M01/M04 A3034 RMK A01 T10131039  RH  083%=      5-min Rain = 0
KTH1 131040Z 11001KT M01/M04 A3034 RMK A01 T10141040  RH  083%=      5-min Rain = 0
KTH1 131041Z 12000KT M01/M04 A3035 RMK A01 T10141038  RH  084%=      5-min Rain = 0
KTH1 131042Z 00000KT M01/M04 A3034 RMK A01 T10131037  RH  084%=      5-min Rain = 0
KTH1 131043Z 00000KT M01/M04 A3034 RMK A01 T10131036  RH  084%=      5-min Rain = 0
KTH1 131044Z 07000KT M01/M04 A3034 RMK A01 T10121036  RH  084%=      5-min Rain = 0
KTH1 131045Z 07001KT M01/M04 A3034 RMK A01 T10121036  RH  084%=      5-min Rain = 0
KTH1 131046Z 07002KT M01/M04 A3034 RMK A01 T10121037  RH  083%=      5-min Rain = 0
KTH1 131047Z 08002KT M01/M04 A3034 RMK A01 T10111036  RH  083%=      5-min Rain = 0
KTH1 131048Z 08002KT M01/M04 A3034 RMK A01 T10111035  RH  084%=      5-min Rain = 0
KTH1 131049Z 08002KT M01/M03 A3034 RMK A01 T10101034  RH  083%=      5-min Rain = 0
KTH1 131050Z 09002KT M01/M03 A3034 RMK A01 T10091033  RH  083%=      5-min Rain = 0
KTH1 131051Z 09002KT M01/M03 A3034 RMK A01 T10071032  RH  083%=      5-min Rain = 0
KTH1 131052Z 09002KT M01/M03 A3034 RMK A01 T10061031  RH  083%=      5-min Rain = 0
KTH1 131053Z 09002KT M01/M03 A3034 RMK A01 T10051031  RH  083%=      5-min Rain = 0
KTH1 131054Z 10002KT M00/M03 A3034 RMK A01 T10041031  RH  082%=      5-min Rain = 0
KTH1 131055Z 09001KT M00/M03 A3034 RMK A01 T10041031  RH  082%=      5-min Rain = 0
KTH1 131056Z 08001KT M00/M03 A3034 RMK A01 T10031031  RH  082%=      5-min Rain = 0
KTH1 131057Z 07001KT M00/M03 A3034 RMK A01 T10031031  RH  081%=      5-min Rain = 0
KTH1 131058Z 07002KT M00/M03 A3034 RMK A01 T10031031  RH  081%=      5-min Rain = 0
KTH1 131059Z 07001KT M00/M03 A3034 RMK A01 T10031032  RH  081%=      5-min Rain = 0
KTH1 131100Z 06001KT M00/M03 A3034 RMK A01 T10031033  RH  080%=      5-min Rain = 0
KTH1 131101Z 07001KT M00/M03 A3034 RMK A01 T10031032  RH  080%=      5-min Rain = 0
KTH1 131102Z 06001KT M00/M03 A3034 RMK A01 T10031033  RH  080%=      5-min Rain = 0
KTH1 131103Z 07002KT M00/M03 A3034 RMK A01 T10031032  RH  081%=      5-min Rain = 0
KTH1 131104Z 07001KT M00/M03 A3034 RMK A01 T10031032  RH  080%=      5-min Rain = 0
KTH1 131105Z 08002KT M00/M03 A3034 RMK A01 T10031033  RH  080%=      5-min Rain = 0
KTH1 131106Z 07002KT M00/M03 A3034 RMK A01 T10031032  RH  080%=      5-min Rain = 0
KTH1 131107Z 08002KT M00/M03 A3034 RMK A01 T10021032  RH  081%=      5-min Rain = 0
KTH1 131108Z 07001KT M00/M03 A3034 RMK A01 T10021033  RH  080%=      5-min Rain = 0
KTH1 131109Z 08001KT M00/M03 A3034 RMK A01 T10021033  RH  080%=      5-min Rain = 0
KTH1 131110Z 07001KT M00/M03 A3034 RMK A01 T10021033  RH  080%=      5-min Rain = 0
KTH1 131111Z 07001KT M00/M03 A3034 RMK A01 T10021032  RH  080%=      5-min Rain = 0
KTH1 131112Z 06001KT M00/M03 A3034 RMK A01 T10021032  RH  080%=      5-min Rain = 0
KTH1 131113Z 07001KT M00/M03 A3034 RMK A01 T10021033  RH  080%=      5-min Rain = 0
KTH1 131114Z 08001KT M00/M03 A3034 RMK A01 T10021033  RH  080%=      5-min Rain = 0
KTH1 131115Z 06000KT M00/M03 A3034 RMK A01 T10021033  RH  080%=      5-min Rain = 0
KTH1 131116Z 00000KT M00/M03 A3034 RMK A01 T10021033  RH  080%=      5-min Rain = 0
KTH1 131117Z 07001KT M00/M03 A3034 RMK A01 T10011032  RH  080%=      5-min Rain = 0
KTH1 131118Z 08001KT M00/M03 A3034 RMK A01 T10011032  RH  080%=      5-min Rain = 0
KTH1 131119Z 08002KT M00/M03 A3034 RMK A01 T10011031  RH  080%=      5-min Rain = 0
KTH1 131120Z 08002KT 00/03 A3034 RMK A01 T00-00-31  RH  080%=      5-min Rain = 0
KTH1 131121Z 08002KT 00/03 A3034 RMK A01 T00-00-31  RH  080%=      5-min Rain = 0
KTH1 131122Z 08002KT 00/03 A3034 RMK A01 T00000-31  RH  080%=      5-min Rain = 0
KTH1 131123Z 08002KT 00/03 A3034 RMK A01 T00000-31  RH  080%=      5-min Rain = 0
KTH1 131124Z 08002KT 00/M03 A3034 RMK A01 T00011030  RH  080%=      5-min Rain = 0
KTH1 131125Z 08002KT 00/M03 A3034 RMK A01 T00011030  RH  080%=      5-min Rain = 0
KTH1 131126Z 09002KT 00/M03 A3034 RMK A01 T00011030  RH  080%=      5-min Rain = 0
KTH1 131127Z 09002KT 00/M03 A3034 RMK A01 T00021030  RH  079%=      5-min Rain = 0
KTH1 131128Z 09002KT 00/M03 A3033 RMK A01 T00011030  RH  079%=      5-min Rain = 0
KTH1 131129Z 09003KT 00/M03 A3033 RMK A01 T00011031  RH  079%=      5-min Rain = 0
KTH1 131130Z 09003KT 00/M03 A3033 RMK A01 T00021030  RH  079%=      5-min Rain = 0
KTH1 131131Z 10002KT 00/M03 A3033 RMK A01 T00011030  RH  079%=      5-min Rain = 0
KTH1 131132Z 11002KT 00/M03 A3033 RMK A01 T00011030  RH  079%=      5-min Rain = 0
KTH1 131133Z 11002KT 00/M03 A3034 RMK A01 T00021030  RH  079%=      5-min Rain = 0
KTH1 131134Z 10002KT 00/M03 A3034 RMK A01 T00021030  RH  079%=      5-min Rain = 0
KTH1 131135Z 08002KT 00/M03 A3033 RMK A01 T00021030  RH  079%=      5-min Rain = 0
KTH1 131136Z 09002KT 00/M03 A3034 RMK A01 T00021030  RH  079%=      5-min Rain = 0
KTH1 131137Z 07002KT 00/M03 A3034 RMK A01 T00021030  RH  079%=      5-min Rain = 0
KTH1 131138Z 05002KT 00/M03 A3034 RMK A01 T00021030  RH  079%=      5-min Rain = 0
KTH1 131139Z 06002KT 00/M03 A3034 RMK A01 T00021030  RH  079%=      5-min Rain = 0
KTH1 131140Z 05001KT 00/M03 A3034 RMK A01 T00031029  RH  079%=      5-min Rain = 0
KTH1 131141Z 04001KT 00/M03 A3034 RMK A01 T00031029  RH  079%=      5-min Rain = 0
KTH1 131142Z 02001KT 00/M03 A3034 RMK A01 T00031029  RH  079%=      5-min Rain = 0
KTH1 131143Z 03001KT 00/M03 A3034 RMK A01 T00031029  RH  079%=      5-min Rain = 0
KTH1 131144Z 03001KT 00/M03 A3034 RMK A01 T00041029  RH  079%=      5-min Rain = 0
KTH1 131145Z 03001KT 00/M03 A3034 RMK A01 T00041029  RH  079%=      5-min Rain = 0
KTH1 131146Z 03002KT 00/M03 A3034 RMK A01 T00041029  RH  079%=      5-min Rain = 0
KTH1 131147Z 02002KT 00/M03 A3034 RMK A01 T00041030  RH  078%=      5-min Rain = 0
KTH1 131148Z 02001KT 00/M03 A3034 RMK A01 T00031030  RH  078%=      5-min Rain = 0
KTH1 131149Z 02001KT 00/M03 A3034 RMK A01 T00031030  RH  079%=      5-min Rain = 0
KTH1 131150Z 02001KT 00/M03 A3034 RMK A01 T00031030  RH  079%=      5-min Rain = 0
KTH1 131151Z 01002KT 00/M03 A3034 RMK A01 T00031030  RH  079%=      5-min Rain = 0
KTH1 131152Z 36001KT 00/M03 A3034 RMK A01 T00031030  RH  078%=      5-min Rain = 0
KTH1 131153Z 01001KT 00/M03 A3035 RMK A01 T00031030  RH  078%=      5-min Rain = 0
KTH1 131154Z 36001KT 00/M03 A3035 RMK A01 T00031030  RH  078%=      5-min Rain = 0
KTH1 131155Z 01001KT 00/M03 A3035 RMK A01 T00031030  RH  078%=      5-min Rain = 0
KTH1 131156Z 00001KT 00/M03 A3035 RMK A01 T00031030  RH  078%=      5-min Rain = 0
KTH1 131157Z 03001KT 00/M03 A3035 RMK A01 T00031030  RH  078%=      5-min Rain = 0
KTH1 131158Z 02001KT 00/M03 A3035 RMK A01 T00031030  RH  078%=      5-min Rain = 0
KTH1 131159Z 02001KT 00/M03 A3035 RMK A01 T00031030  RH  078%=      5-min Rain = 0
KTH1 131200Z 02001KT 00/M03 A3035 RMK A01 T00031030  RH  078%=      5-min Rain = 0
KTH1 131201Z 03001KT 00/M03 A3035 RMK A01 T00031030  RH  078%=      5-min Rain = 0
KTH1 131202Z 01001KT 00/M03 A3035 RMK A01 T00031030  RH  078%=      5-min Rain = 0
KTH1 131203Z 02002KT 00/M03 A3035 RMK A01 T00031030  RH  078%=      5-min Rain = 0
KTH1 131204Z 02002KT 00/M03 A3035 RMK A01 T00041030  RH  078%=      5-min Rain = 0
KTH1 131205Z 01000KT 00/M03 A3035 RMK A01 T00041030  RH  078%=      5-min Rain = 0
KTH1 131206Z 04001KT 00/M03 A3035 RMK A01 T00041029  RH  078%=      5-min Rain = 0
KTH1 131207Z 05001KT 00/M03 A3035 RMK A01 T00041029  RH  078%=      5-min Rain = 0
KTH1 131208Z 06001KT 01/M03 A3035 RMK A01 T00051030  RH  078%=      5-min Rain = 0
KTH1 131209Z 06001KT 01/M03 A3035 RMK A01 T00051030  RH  078%=      5-min Rain = 0
KTH1 131210Z 10001KT 00/M03 A3035 RMK A01 T00041030  RH  078%=      5-min Rain = 0
KTH1 131211Z 09001KT 01/M03 A3035 RMK A01 T00051029  RH  078%=      5-min Rain = 0
KTH1 131212Z 09002KT 01/M03 A3035 RMK A01 T00051030  RH  078%=      5-min Rain = 0
KTH1 131213Z 11002KT 01/M03 A3035 RMK A01 T00051029  RH  078%=      5-min Rain = 0
KTH1 131214Z 11001KT 01/M03 A3035 RMK A01 T00061028  RH  078%=      5-min Rain = 0
KTH1 131215Z 11001KT 01/M03 A3035 RMK A01 T00061028  RH  078%=      5-min Rain = 0
KTH1 131216Z 10002KT 01/M03 A3035 RMK A01 T00061027  RH  078%=      5-min Rain = 0
KTH1 131217Z 09002KT 01/M03 A3035 RMK A01 T00071028  RH  078%=      5-min Rain = 0
KTH1 131218Z 09002KT 01/M03 A3034 RMK A01 T00071028  RH  078%=      5-min Rain = 0
KTH1 131219Z 08002KT 01/M03 A3034 RMK A01 T00071028  RH  078%=      5-min Rain = 0
KTH1 131220Z 08001KT 01/M03 A3034 RMK A01 T00071027  RH  078%=      5-min Rain = 0
KTH1 131221Z 07001KT 01/M03 A3034 RMK A01 T00071028  RH  078%=      5-min Rain = 0
KTH1 131222Z 09001KT 01/M03 A3035 RMK A01 T00071027  RH  078%=      5-min Rain = 0
KTH1 131223Z 11001KT 01/M03 A3035 RMK A01 T00071027  RH  078%=      5-min Rain = 0
KTH1 131224Z 12002KT 01/M03 A3035 RMK A01 T00071027  RH  077%=      5-min Rain = 0
KTH1 131225Z 12002KT 01/M03 A3035 RMK A01 T00081027  RH  077%=      5-min Rain = 0
KTH1 131226Z 12002KT 01/M03 A3035 RMK A01 T00081027  RH  078%=      5-min Rain = 0
KTH1 131227Z 13003KT 01/M03 A3035 RMK A01 T00081027  RH  078%=      5-min Rain = 0
KTH1 131228Z 14003KT 01/M03 A3035 RMK A01 T00081027  RH  078%=      5-min Rain = 0
KTH1 131229Z 14003KT 01/M03 A3035 RMK A01 T00091027  RH  077%=      5-min Rain = 0
KTH1 131230Z 13003KT 01/M03 A3035 RMK A01 T00091026  RH  077%=      5-min Rain = 0
KTH1 131231Z 13002KT 01/M03 A3035 RMK A01 T00091027  RH  077%=      5-min Rain = 0
KTH1 131232Z 12002KT 01/M03 A3035 RMK A01 T00091027  RH  077%=      5-min Rain = 0
KTH1 131233Z 12002KT 01/M03 A3035 RMK A01 T00091027  RH  077%=      5-min Rain = 0
KTH1 131234Z 10001KT 01/M03 A3035 RMK A01 T00091027  RH  077%=      5-min Rain = 0
KTH1 131235Z 10001KT 01/M03 A3035 RMK A01 T00091027  RH  077%=      5-min Rain = 0
KTH1 131236Z 09002KT 01/M03 A3035 RMK A01 T00091027  RH  077%=      5-min Rain = 0
KTH1 131237Z 09001KT 01/M03 A3035 RMK A01 T00091027  RH  077%=      5-min Rain = 0
KTH1 131238Z 11001KT 01/M03 A3036 RMK A01 T00091026  RH  077%=      5-min Rain = 0
KTH1 131239Z 11001KT 01/M03 A3036 RMK A01 T00101026  RH  077%=      5-min Rain = 0
KTH1 131240Z 12001KT 01/M03 A3036 RMK A01 T00101026  RH  077%=      5-min Rain = 0
KTH1 131241Z 13000KT 01/M03 A3036 RMK A01 T00101025  RH  077%=      5-min Rain = 0
KTH1 131242Z 13000KT 01/M03 A3036 RMK A01 T00111025  RH  077%=      5-min Rain = 0
KTH1 131243Z 20001KT 01/M03 A3036 RMK A01 T00111025  RH  077%=      5-min Rain = 0
KTH1 131244Z 22000KT 01/M02 A3036 RMK A01 T00121024  RH  077%=      5-min Rain = 0
KTH1 131245Z 25001KT 01/M02 A3037 RMK A01 T00121024  RH  077%=      5-min Rain = 0
KTH1 131246Z 26001KT 01/M02 A3037 RMK A01 T00131023  RH  077%=      5-min Rain = 0
KTH1 131247Z 24001KT 01/M02 A3037 RMK A01 T00131022  RH  077%=      5-min Rain = 0
KTH1 131248Z 25002KT 01/M02 A3037 RMK A01 T00131022  RH  077%=      5-min Rain = 0
KTH1 131249Z 25001KT 01/M02 A3037 RMK A01 T00141022  RH  077%=      5-min Rain = 0
KTH1 131250Z 25001KT 01/M02 A3037 RMK A01 T00141021  RH  077%=      5-min Rain = 0
KTH1 131251Z 24001KT 01/M02 A3037 RMK A01 T00141021  RH  077%=      5-min Rain = 0
KTH1 131252Z 24002KT 01/M02 A3038 RMK A01 T00141020  RH  078%=      5-min Rain = 0
KTH1 131253Z 25002KT 02/M02 A3037 RMK A01 T00151019  RH  078%=      5-min Rain = 0
KTH1 131254Z 24001KT 02/M02 A3037 RMK A01 T00151018  RH  079%=      5-min Rain = 0
KTH1 131255Z 24001KT 02/M02 A3037 RMK A01 T00161017  RH  079%=      5-min Rain = 0
KTH1 131256Z 23001KT 02/M02 A3037 RMK A01 T00161016  RH  079%=      5-min Rain = 0
KTH1 131257Z 22001KT 02/M02 A3038 RMK A01 T00161016  RH  079%=      5-min Rain = 0
KTH1 131258Z 22001KT 02/M02 A3038 RMK A01 T00161017  RH  079%=      5-min Rain = 0
KTH1 131259Z 22000KT 02/M02 A3038 RMK A01 T00161016  RH  079%=      5-min Rain = 0
KTH1 131300Z 23001KT 02/M02 A3038 RMK A01 T00161016  RH  079%=      5-min Rain = 0
KTH1 131301Z 24001KT 02/M02 A3038 RMK A01 T00161016  RH  079%=      5-min Rain = 0
KTH1 131302Z 27001KT 02/M02 A3038 RMK A01 T00171016  RH  079%=      5-min Rain = 0
KTH1 131303Z 28001KT 02/M02 A3038 RMK A01 T00171015  RH  079%=      5-min Rain = 0
KTH1 131304Z 28001KT 02/M01 A3038 RMK A01 T00171014  RH  080%=      5-min Rain = 0
KTH1 131305Z 27001KT 02/M01 A3038 RMK A01 T00171013  RH  081%=      5-min Rain = 0
KTH1 131306Z 24001KT 02/M01 A3038 RMK A01 T00171012  RH  081%=      5-min Rain = 0
KTH1 131307Z 23001KT 02/M01 A3038 RMK A01 T00181012  RH  081%=      5-min Rain = 0
KTH1 131308Z 22000KT 02/M01 A3039 RMK A01 T00181012  RH  081%=      5-min Rain = 0
KTH1 131309Z 19001KT 02/M01 A3039 RMK A01 T00171013  RH  080%=      5-min Rain = 0
KTH1 131310Z 15001KT 02/M01 A3039 RMK A01 T00171012  RH  081%=      5-min Rain = 0
KTH1 131311Z 11001KT 02/M01 A3039 RMK A01 T00171011  RH  081%=      5-min Rain = 0
KTH1 131312Z 11001KT 02/M01 A3039 RMK A01 T00171011  RH  082%=      5-min Rain = 0
KTH1 131313Z 11001KT 02/M01 A3039 RMK A01 T00181011  RH  081%=      5-min Rain = 0
KTH1 131314Z 11001KT 02/M01 A3039 RMK A01 T00171012  RH  081%=      5-min Rain = 0
KTH1 131315Z 09002KT 02/M01 A3039 RMK A01 T00171011  RH  082%=      5-min Rain = 0
KTH1 131316Z 08001KT 02/M01 A3039 RMK A01 T00171010  RH  082%=      5-min Rain = 0
KTH1 131317Z 06001KT 02/M01 A3039 RMK A01 T00171009  RH  083%=      5-min Rain = 0
KTH1 131318Z 06002KT 02/M01 A3039 RMK A01 T00171008  RH  083%=      5-min Rain = 0
KTH1 131319Z 05003KT 02/M01 A3038 RMK A01 T00161009  RH  083%=      5-min Rain = 0
KTH1 131320Z 04002KT 02/M01 A3039 RMK A01 T00161009  RH  083%=      5-min Rain = 0
KTH1 131321Z 02000KT 02/M01 A3039 RMK A01 T00161008  RH  084%=      5-min Rain = 0
KTH1 131322Z 21000KT 02/M01 A3039 RMK A01 T00161007  RH  085%=      5-min Rain = 0
KTH1 131323Z 21001KT 02/M01 A304 RMK A01 T00161006  RH  085%=      5-min Rain = 0
KTH1 131324Z 20001KT 02/M01 A3039 RMK A01 T00161005  RH  086%=      5-min Rain = 0
KTH1 131325Z 00000KT 02/M00 A3039 RMK A01 T00161004  RH  086%=      5-min Rain = 0
KTH1 131326Z 00000KT 02/M00 A3039 RMK A01 T00161004  RH  086%=      5-min Rain = 0
KTH1 131327Z 00000KT 02/M00 A304 RMK A01 T00161004  RH  086%=      5-min Rain = 0
KTH1 131328Z 00000KT 02/M01 A3039 RMK A01 T00161005  RH  086%=      5-min Rain = 0
KTH1 131329Z 08000KT 02/M01 A3039 RMK A01 T00161005  RH  086%=      5-min Rain = 0
KTH1 131330Z 06001KT 02/M01 A3039 RMK A01 T00161006  RH  086%=      5-min Rain = 0
KTH1 131331Z 06001KT 02/M01 A3039 RMK A01 T00161005  RH  086%=      5-min Rain = 0
KTH1 131332Z 08001KT 02/M01 A304 RMK A01 T00161005  RH  086%=      5-min Rain = 0
KTH1 131333Z 07001KT 02/M01 A3039 RMK A01 T00161008  RH  085%=      5-min Rain = 0
KTH1 131334Z 06001KT 02/M01 A3039 RMK A01 T00151009  RH  084%=      5-min Rain = 0
KTH1 131335Z 05002KT 01/M01 A3039 RMK A01 T00141008  RH  085%=      5-min Rain = 0
KTH1 131336Z 05001KT 02/M01 A3039 RMK A01 T00151006  RH  086%=      5-min Rain = 0
KTH1 131337Z 05001KT 02/M01 A304 RMK A01 T00151006  RH  086%=      5-min Rain = 0
KTH1 131338Z 05001KT 01/M01 A3039 RMK A01 T00141006  RH  087%=      5-min Rain = 0
KTH1 131339Z 05002KT 01/M01 A3039 RMK A01 T00141005  RH  087%=      5-min Rain = 0
KTH1 131340Z 05002KT 01/M01 A3039 RMK A01 T00141005  RH  088%=      5-min Rain = 0
KTH1 131341Z 07001KT 01/M01 A304 RMK A01 T00131005  RH  088%=      5-min Rain = 0
KTH1 131342Z 07001KT 01/M00 A304 RMK A01 T00131004  RH  088%=      5-min Rain = 0
KTH1 131343Z 06001KT 01/M00 A304 RMK A01 T00131003  RH  089%=      5-min Rain = 0
KTH1 131344Z 06001KT 01/M00 A304 RMK A01 T00131002  RH  090%=      5-min Rain = 0
KTH1 131345Z 05001KT 01/M00 A304 RMK A01 T00131002  RH  090%=      5-min Rain = 0
KTH1 131346Z 05001KT 01/M00 A304 RMK A01 T00131003  RH  089%=      5-min Rain = 0
KTH1 131347Z 05001KT 01/M00 A304 RMK A01 T00121004  RH  089%=      5-min Rain = 0
KTH1 131348Z 06001KT 01/M00 A304 RMK A01 T00121004  RH  089%=      5-min Rain = 0
KTH1 131349Z 04001KT 01/M00 A304 RMK A01 T00121003  RH  090%=      5-min Rain = 0
KTH1 131350Z 05001KT 01/M00 A304 RMK A01 T00121003  RH  090%=      5-min Rain = 0
KTH1 131351Z 05001KT 01/M00 A304 RMK A01 T00121001  RH  091%=      5-min Rain = 0
KTH1 131352Z 05001KT 01/00 A304 RMK A01 T001200-0  RH  091%=      5-min Rain = 0
KTH1 131353Z 04001KT 01/00 A304 RMK A01 T00120000  RH  092%=      5-min Rain = 0
KTH1 131354Z 05001KT 01/00 A304 RMK A01 T00120000  RH  092%=      5-min Rain = 0
KTH1 131355Z 06001KT 01/00 A304 RMK A01 T00120001  RH  092%=      5-min Rain = 0
KTH1 131356Z 07001KT 01/00 A304 RMK A01 T00120001  RH  092%=      5-min Rain = 0
KTH1 131357Z 10001KT 01/00 A304 RMK A01 T00120002  RH  093%=      5-min Rain = 0
KTH1 131358Z 10002KT 01/00 A304 RMK A01 T00120002  RH  093%=      5-min Rain = 0
KTH1 131359Z 10002KT 01/00 A304 RMK A01 T00120002  RH  093%=      5-min Rain = 0
KTH1 131400Z 11001KT 01/00 A304 RMK A01 T00120003  RH  093%=      5-min Rain = 0
KTH1 131401Z 09001KT 01/00 A304 RMK A01 T00120003  RH  093%=      5-min Rain = 0
KTH1 131402Z 10002KT 01/00 A304 RMK A01 T00120003  RH  094%=      5-min Rain = 0
KTH1 131403Z 10002KT 01/00 A304 RMK A01 T00120003  RH  094%=      5-min Rain = 0
KTH1 131404Z 12001KT 01/00 A304 RMK A01 T00120003  RH  094%=      5-min Rain = 0
KTH1 131405Z 11001KT 01/00 A304 RMK A01 T00120003  RH  094%=      5-min Rain = 0
KTH1 131406Z 11001KT 01/00 A304 RMK A01 T00120003  RH  094%=      5-min Rain = 0
KTH1 131407Z 12001KT 01/00 A304 RMK A01 T00120004  RH  095%=      5-min Rain = 0
KTH1 131408Z 13001KT 01/00 A304 RMK A01 T00120004  RH  095%=      5-min Rain = 0
KTH1 131409Z 12001KT 01/00 A304 RMK A01 T00110004  RH  095%=      5-min Rain = 0
KTH1 131410Z 13001KT 01/01 A304 RMK A01 T00120005  RH  095%=      5-min Rain = 0
KTH1 131411Z 11002KT 01/01 A304 RMK A01 T00120005  RH  095%=      5-min Rain = 0
KTH1 131412Z 11002KT 01/01 A304 RMK A01 T00120005  RH  095%=      5-min Rain = 0
KTH1 131413Z 11002KT 01/01 A304 RMK A01 T00120005  RH  095%=      5-min Rain = 0
KTH1 131414Z 10002KT 01/01 A304 RMK A01 T00120006  RH  096%=      5-min Rain = 0
KTH1 131415Z 10002KT 01/01 A304 RMK A01 T00120006  RH  096%=      5-min Rain = 0
KTH1 131416Z 12002KT 01/01 A3041 RMK A01 T00120007  RH  096%=      5-min Rain = 0
KTH1 131417Z 13001KT 01/01 A3041 RMK A01 T00130007  RH  096%=      5-min Rain = 0
KTH1 131418Z 14002KT 01/01 A3041 RMK A01 T00130007  RH  096%=      5-min Rain = 0
KTH1 131419Z 13002KT 01/01 A3041 RMK A01 T00130008  RH  096%=      5-min Rain = 0
KTH1 131420Z 13003KT 01/01 A3041 RMK A01 T00140008  RH  096%=      5-min Rain = 0
KTH1 131421Z 12002KT 01/01 A3041 RMK A01 T00140009  RH  097%=      5-min Rain = 0
KTH1 131422Z 12003KT 02/01 A3041 RMK A01 T00150010  RH  097%=      5-min Rain = 0
KTH1 131423Z 12003KT 02/01 A3041 RMK A01 T00150011  RH  097%=      5-min Rain = 0
KTH1 131424Z 13003KT 02/01 A3041 RMK A01 T00160012  RH  097%=      5-min Rain = 0
KTH1 131425Z 13003KT 02/01 A3041 RMK A01 T00170012  RH  097%=      5-min Rain = 0
KTH1 131426Z 13003KT 02/01 A304 RMK A01 T00170013  RH  097%=      5-min Rain = 0
KTH1 131427Z 13002KT 02/01 A304 RMK A01 T00170013  RH  097%=      5-min Rain = 0
KTH1 131428Z 12002KT 02/01 A304 RMK A01 T00180014  RH  097%=      5-min Rain = 0
KTH1 131429Z 15002KT 02/01 A3041 RMK A01 T00180014  RH  097%=      5-min Rain = 0
KTH1 131430Z 13002KT 02/02 A304 RMK A01 T00190015  RH  097%=      5-min Rain = 0
KTH1 131431Z 12002KT 02/02 A304 RMK A01 T00190015  RH  097%=      5-min Rain = 0
KTH1 131432Z 12002KT 02/02 A3041 RMK A01 T00190016  RH  097%=      5-min Rain = 0
KTH1 131433Z 13002KT 02/02 A3041 RMK A01 T00200016  RH  098%=      5-min Rain = 0
KTH1 131434Z 11002KT 02/02 A3041 RMK A01 T00200016  RH  098%=      5-min Rain = 0
KTH1 131435Z 12003KT 02/02 A3041 RMK A01 T00200017  RH  098%=      5-min Rain = 0
KTH1 131436Z 12003KT 02/02 A3041 RMK A01 T00200017  RH  098%=      5-min Rain = 0
KTH1 131437Z 12002KT 02/02 A3041 RMK A01 T00200016  RH  097%=      5-min Rain = 0
KTH1 131438Z 11002KT 02/02 A3041 RMK A01 T00200017  RH  098%=      5-min Rain = 0
KTH1 131439Z 12004KT 02/02 A3041 RMK A01 T00210017  RH  098%=      5-min Rain = 0
KTH1 131440Z 12004KT 02/02 A3041 RMK A01 T00210017  RH  098%=      5-min Rain = 0
KTH1 131441Z 12003KT 02/02 A3041 RMK A01 T00210017  RH  098%=      5-min Rain = 0
KTH1 131442Z 12003KT 02/02 A3041 RMK A01 T00210017  RH  098%=      5-min Rain = 0
KTH1 131443Z 12004KT 02/02 A3041 RMK A01 T00210017  RH  098%=      5-min Rain = 0
KTH1 131444Z 12003KT 02/02 A3041 RMK A01 T00210017  RH  098%=      5-min Rain = 0
KTH1 131445Z 13003KT 02/02 A3041 RMK A01 T00210018  RH  098%=      5-min Rain = 0
KTH1 131446Z 13003KT 02/02 A3041 RMK A01 T00210018  RH  098%=      5-min Rain = 0
KTH1 131447Z 13004KT 02/02 A3041 RMK A01 T00210018  RH  098%=      5-min Rain = 0
KTH1 131448Z 12004KT 02/02 A3041 RMK A01 T00220018  RH  098%=      5-min Rain = 0
KTH1 131449Z 13003KT 02/02 A3041 RMK A01 T00220019  RH  098%=      5-min Rain = 0
KTH1 131450Z 12003KT 02/02 A3041 RMK A01 T00220019  RH  098%=      5-min Rain = 0
KTH1 131451Z 12003KT 02/02 A3041 RMK A01 T00230020  RH  098%=      5-min Rain = 0
KTH1 131452Z 12005KT 02/02 A3041 RMK A01 T00230020  RH  098%=      5-min Rain = 0
KTH1 131453Z 13004KT 02/02 A3041 RMK A01 T00230020  RH  098%=      5-min Rain = 0
KTH1 131454Z 12005KT 02/02 A3041 RMK A01 T00230020  RH  098%=      5-min Rain = 0
KTH1 131455Z 12004KT 02/02 A3041 RMK A01 T00240020  RH  098%=      5-min Rain = 0
KTH1 131456Z 12005KT 02/02 A3041 RMK A01 T00240020  RH  098%=      5-min Rain = 0
KTH1 131457Z 12004KT 02/02 A3041 RMK A01 T00240021  RH  098%=      5-min Rain = 0
KTH1 131458Z 11003KT 02/02 A3041 RMK A01 T00240020  RH  098%=      5-min Rain = 0
KTH1 131459Z 13004KT 02/02 A3041 RMK A01 T00240021  RH  098%=      5-min Rain = 0
KTH1 131500Z 12003KT 02/02 A3041 RMK A01 T00240021  RH  098%=      5-min Rain = 0
KTH1 131501Z 10002KT 03/02 A3041 RMK A01 T00250022  RH  098%=      5-min Rain = 0
KTH1 131502Z 11003KT 03/02 A3041 RMK A01 T00260023  RH  098%=      5-min Rain = 0
KTH1 131503Z 11003KT 03/02 A3041 RMK A01 T00260023  RH  098%=      5-min Rain = 0
KTH1 131504Z 12002KT 03/02 A3041 RMK A01 T00260023  RH  098%=      5-min Rain = 0
KTH1 131505Z 13003KT 03/02 A3041 RMK A01 T00260023  RH  098%=      5-min Rain = 0
KTH1 131506Z 13003KT 03/02 A3041 RMK A01 T00270024  RH  098%=      5-min Rain = 0
KTH1 131507Z 13002KT 03/02 A3041 RMK A01 T00270024  RH  098%=      5-min Rain = 0
KTH1 131508Z 11002KT 03/02 A3041 RMK A01 T00270024  RH  098%=      5-min Rain = 0
KTH1 131509Z 11002KT 03/03 A3041 RMK A01 T00270025  RH  098%=      5-min Rain = 0
KTH1 131510Z 12003KT 03/03 A3041 RMK A01 T00280025  RH  098%=      5-min Rain = 0
KTH1 131511Z 13004KT 03/03 A3041 RMK A01 T00280025  RH  098%=      5-min Rain = 0
KTH1 131512Z 13005KT 03/03 A3042 RMK A01 T00280025  RH  098%=      5-min Rain = 0
KTH1 131513Z 14005KT 03/03 A3042 RMK A01 T00280025  RH  098%=      5-min Rain = 0
KTH1 131514Z 14005KT 03/02 A3042 RMK A01 T00280024  RH  098%=      5-min Rain = 0
KTH1 131515Z 14006KT 03/02 A3042 RMK A01 T00270024  RH  098%=      5-min Rain = 0
KTH1 131516Z 13005KT 03/02 A3042 RMK A01 T00270024  RH  098%=      5-min Rain = 0
KTH1 131517Z 14005KT 03/02 A3042 RMK A01 T00270024  RH  098%=      5-min Rain = 0
KTH1 131518Z 13004KT 03/02 A3042 RMK A01 T00270024  RH  098%=      5-min Rain = 0
KTH1 131519Z 13004KT 03/02 A3042 RMK A01 T00270024  RH  098%=      5-min Rain = 0
KTH1 131520Z 13004KT 03/02 A3041 RMK A01 T00270024  RH  098%=      5-min Rain = 0
KTH1 131521Z 13004KT 03/03 A3041 RMK A01 T00280025  RH  098%=      5-min Rain = 0
KTH1 131522Z 13003KT 03/03 A3041 RMK A01 T00280025  RH  098%=      5-min Rain = 0
KTH1 131523Z 13003KT 03/03 A3042 RMK A01 T00290026  RH  098%=      5-min Rain = 0
KTH1 131524Z 13005KT 03/03 A3042 RMK A01 T00300027  RH  098%=      5-min Rain = 0
KTH1 131525Z 14005KT 03/03 A3041 RMK A01 T00300027  RH  098%=      5-min Rain = 0
KTH1 131526Z 13005KT 03/03 A3041 RMK A01 T00300027  RH  098%=      5-min Rain = 0
KTH1 131527Z 12004KT 03/03 A3041 RMK A01 T00300027  RH  098%=      5-min Rain = 0
KTH1 131528Z 12003KT 03/03 A3041 RMK A01 T00300027  RH  098%=      5-min Rain = 0
KTH1 131529Z 12003KT 03/03 A3041 RMK A01 T00310028  RH  098%=      5-min Rain = 0
KTH1 131530Z 12004KT 03/03 A3041 RMK A01 T00310028  RH  098%=      5-min Rain = 0
KTH1 131531Z 13004KT 03/03 A3041 RMK A01 T00310028  RH  098%=      5-min Rain = 0
KTH1 131532Z 14004KT 03/03 A3041 RMK A01 T00310028  RH  098%=      5-min Rain = 0
KTH1 131533Z 14004KT 03/03 A3041 RMK A01 T00310028  RH  098%=      5-min Rain = 0
KTH1 131534Z 13006KT 03/03 A3041 RMK A01 T00310028  RH  098%=      5-min Rain = 0
KTH1 131535Z 14005KT 03/03 A3041 RMK A01 T00320029  RH  098%=      5-min Rain = 0
KTH1 131536Z 14004KT 03/03 A3041 RMK A01 T00320029  RH  098%=      5-min Rain = 0
KTH1 131537Z 13005KT 03/03 A3041 RMK A01 T00320029  RH  098%=      5-min Rain = 0
KTH1 131538Z 12003KT 03/03 A3041 RMK A01 T00330030  RH  098%=      5-min Rain = 0
KTH1 131539Z 12004KT 03/03 A3041 RMK A01 T00330030  RH  098%=      5-min Rain = 0
KTH1 131540Z 13004KT 03/03 A3041 RMK A01 T00330030  RH  098%=      5-min Rain = 0
KTH1 131541Z 12003KT 03/03 A3041 RMK A01 T00340031  RH  098%=      5-min Rain = 0
KTH1 131542Z 11004KT 03/03 A3041 RMK A01 T00340031  RH  098%=      5-min Rain = 0
KTH1 131543Z 12005KT 03/03 A3041 RMK A01 T00340030  RH  098%=      5-min Rain = 0
KTH1 131544Z 13005KT 03/03 A3041 RMK A01 T00330030  RH  098%=      5-min Rain = 0
KTH1 131545Z 13004KT 03/03 A3041 RMK A01 T00340030  RH  098%=      5-min Rain = 0
KTH1 131546Z 13004KT 03/03 A3041 RMK A01 T00340031  RH  098%=      5-min Rain = 0
KTH1 131547Z 13005KT 04/03 A3041 RMK A01 T00350032  RH  098%=      5-min Rain = 0
KTH1 131548Z 14005KT 04/03 A3041 RMK A01 T00350032  RH  098%=      5-min Rain = 0
KTH1 131549Z 14005KT 04/03 A3041 RMK A01 T00350031  RH  098%=      5-min Rain = 0
KTH1 131550Z 12005KT 04/03 A3041 RMK A01 T00350031  RH  098%=      5-min Rain = 0
KTH1 131551Z 12005KT 04/03 A3041 RMK A01 T00350031  RH  098%=      5-min Rain = 0
KTH1 131552Z 12004KT 04/03 A3041 RMK A01 T00350031  RH  097%=      5-min Rain = 0
KTH1 131553Z 15005KT 04/03 A3041 RMK A01 T00350031  RH  097%=      5-min Rain = 0
KTH1 131554Z 13004KT 04/03 A3041 RMK A01 T00360032  RH  098%=      5-min Rain = 0
KTH1 131555Z 14004KT 04/03 A3041 RMK A01 T00370033  RH  098%=      5-min Rain = 0
KTH1 131556Z 14005KT 04/03 A3041 RMK A01 T00370034  RH  098%=      5-min Rain = 0
KTH1 131557Z 15005KT 04/03 A3041 RMK A01 T00380034  RH  098%=      5-min Rain = 0
KTH1 131558Z 14004KT 04/03 A3041 RMK A01 T00380034  RH  098%=      5-min Rain = 0
KTH1 131559Z 13005KT 04/04 A3041 RMK A01 T00380035  RH  098%=      5-min Rain = 0
KTH1 131600Z 13005KT 04/04 A3041 RMK A01 T00390035  RH  097%=      5-min Rain = 0
KTH1 131601Z 12005KT 04/04 A3041 RMK A01 T00390035  RH  097%=      5-min Rain = 0
KTH1 131602Z 12005KT 04/04 A3041 RMK A01 T00390035  RH  097%=      5-min Rain = 0
KTH1 131603Z 12005KT 04/04 A304 RMK A01 T00390035  RH  097%=      5-min Rain = 0
KTH1 131604Z 11006KT 04/04 A304 RMK A01 T00390035  RH  097%=      5-min Rain = 0
KTH1 131605Z 12008KT 04/04 A304 RMK A01 T00390035  RH  097%=      5-min Rain = 0
KTH1 131606Z 12007KT 04/03 A304 RMK A01 T00380034  RH  097%=      5-min Rain = 0
KTH1 131607Z 12005KT 04/03 A304 RMK A01 T00380033  RH  097%=      5-min Rain = 0
KTH1 131608Z 10006KT 04/03 A304 RMK A01 T00370033  RH  097%=      5-min Rain = 0
KTH1 131609Z 10007KT 04/03 A304 RMK A01 T00380034  RH  097%=      5-min Rain = 0
KTH1 131610Z 11008KT 04/03 A304 RMK A01 T00390034  RH  097%=      5-min Rain = 0
KTH1 131611Z 11008KT 04/03 A304 RMK A01 T00380034  RH  097%=      5-min Rain = 0
KTH1 131612Z 11005KT 04/03 A304 RMK A01 T00380033  RH  097%=      5-min Rain = 0
KTH1 131613Z 11005KT 04/04 A304 RMK A01 T00390035  RH  097%=      5-min Rain = 0
KTH1 131614Z 12005KT 04/04 A304 RMK A01 T00400036  RH  097%=      5-min Rain = 0
KTH1 131615Z 12005KT 04/04 A304 RMK A01 T00400036  RH  097%=      5-min Rain = 0
KTH1 131616Z 12005KT 04/04 A304 RMK A01 T00410037  RH  097%=      5-min Rain = 0
KTH1 131617Z 11006KT 04/04 A304 RMK A01 T00420038  RH  097%=      5-min Rain = 0
KTH1 131618Z 10006KT 04/04 A304 RMK A01 T00410037  RH  097%=      5-min Rain = 0
KTH1 131619Z 11007KT 04/04 A304 RMK A01 T00410036  RH  097%=      5-min Rain = 0
KTH1 131620Z 11007KT 04/04 A304 RMK A01 T00410036  RH  097%=      5-min Rain = 0
KTH1 131621Z 12006KT 04/04 A304 RMK A01 T00420037  RH  097%=      5-min Rain = 0
KTH1 131622Z 11006KT 04/04 A304 RMK A01 T00420038  RH  097%=      5-min Rain = 0
KTH1 131623Z 12005KT 04/04 A304 RMK A01 T00430038  RH  097%=      5-min Rain = 0
KTH1 131624Z 12005KT 04/04 A304 RMK A01 T00430039  RH  097%=      5-min Rain = 0
KTH1 131625Z 12005KT 04/04 A304 RMK A01 T00430038  RH  097%=      5-min Rain = 0
KTH1 131626Z 11005KT 04/04 A3041 RMK A01 T00430039  RH  097%=      5-min Rain = 0
KTH1 131627Z 12006KT 05/04 A3041 RMK A01 T00450041  RH  097%=      5-min Rain = 0
KTH1 131628Z 13004KT 04/04 A3041 RMK A01 T00440040  RH  097%=      5-min Rain = 0
KTH1 131629Z 13006KT 04/04 A3041 RMK A01 T00440039  RH  097%=      5-min Rain = 0
KTH1 131630Z 13007KT 04/04 A3041 RMK A01 T00430038  RH  096%=      5-min Rain = 0
KTH1 131631Z 13006KT 04/04 A3041 RMK A01 T00430038  RH  096%=      5-min Rain = 0
KTH1 131632Z 12006KT 04/04 A3041 RMK A01 T00440038  RH  096%=      5-min Rain = 0
KTH1 131633Z 12004KT 04/04 A3042 RMK A01 T00430038  RH  096%=      5-min Rain = 0
KTH1 131634Z 12004KT 04/04 A3042 RMK A01 T00440038  RH  096%=      5-min Rain = 0
KTH1 131635Z 13005KT 04/04 A3042 RMK A01 T00440039  RH  096%=      5-min Rain = 0
KTH1 131636Z 14005KT 05/04 A3042 RMK A01 T00450039  RH  096%=      5-min Rain = 0
KTH1 131637Z 13005KT 04/04 A3042 RMK A01 T00440038  RH  096%=      5-min Rain = 0
KTH1 131638Z 13005KT 04/04 A3042 RMK A01 T00440038  RH  096%=      5-min Rain = 0
KTH1 131639Z 13005KT 05/04 A3042 RMK A01 T00450039  RH  096%=      5-min Rain = 0
KTH1 131640Z 13006KT 05/04 A3042 RMK A01 T00450040  RH  096%=      5-min Rain = 0
KTH1 131641Z 14005KT 05/04 A3042 RMK A01 T00460040  RH  096%=      5-min Rain = 0
KTH1 131642Z 14006KT 05/04 A3042 RMK A01 T00470041  RH  096%=      5-min Rain = 0
KTH1 131643Z 13007KT 05/04 A3042 RMK A01 T00480042  RH  096%=      5-min Rain = 0
KTH1 131644Z 13007KT 05/04 A3042 RMK A01 T00480042  RH  096%=      5-min Rain = 0
KTH1 131645Z 14007KT 05/04 A3042 RMK A01 T00480041  RH  096%=      5-min Rain = 0
KTH1 131646Z 14006KT 05/04 A3042 RMK A01 T00480041  RH  095%=      5-min Rain = 0
KTH1 131647Z 13005KT 05/04 A3042 RMK A01 T00480042  RH  095%=      5-min Rain = 0
KTH1 131648Z 13006KT 05/04 A3042 RMK A01 T00490042  RH  095%=      5-min Rain = 0
KTH1 131649Z 13007KT 05/04 A3042 RMK A01 T00490042  RH  095%=      5-min Rain = 0
KTH1 131650Z 14007KT 05/04 A3042 RMK A01 T00490041  RH  094%=      5-min Rain = 0
KTH1 131651Z 14007KT 05/04 A3042 RMK A01 T00480039  RH  094%=      5-min Rain = 0
KTH1 131652Z 14006KT 05/04 A3042 RMK A01 T00480038  RH  094%=      5-min Rain = 0
KTH1 131653Z 13006KT 05/04 A3043 RMK A01 T00470038  RH  094%=      5-min Rain = 0
KTH1 131654Z 15005KT 05/04 A3043 RMK A01 T00470038  RH  094%=      5-min Rain = 0
KTH1 131655Z 17003KT 05/04 A3043 RMK A01 T00470038  RH  094%=      5-min Rain = 0
KTH1 131656Z 15005KT 05/04 A3043 RMK A01 T00470038  RH  094%=      5-min Rain = 0
KTH1 131657Z 15004KT 05/04 A3043 RMK A01 T00470038  RH  094%=      5-min Rain = 0
KTH1 131658Z 15006KT 05/04 A3043 RMK A01 T00470038  RH  094%=      5-min Rain = 0
KTH1 131659Z 15006KT 05/04 A3043 RMK A01 T00470038  RH  094%=      5-min Rain = 0
KTH1 131700Z 14006KT 05/04 A3043 RMK A01 T00470038  RH  094%=      5-min Rain = 0
KTH1 131701Z 14006KT 05/04 A3043 RMK A01 T00470038  RH  094%=      5-min Rain = 0
KTH1 131702Z 14006KT 05/04 A3042 RMK A01 T00460037  RH  094%=      5-min Rain = 0
KTH1 131703Z 14007KT 05/04 A3042 RMK A01 T00460038  RH  094%=      5-min Rain = 0
KTH1 131704Z 13006KT 05/04 A3042 RMK A01 T00460037  RH  094%=      5-min Rain = 0
KTH1 131705Z 14005KT 05/04 A3042 RMK A01 T00470038  RH  094%=      5-min Rain = 0
KTH1 131706Z 14006KT 05/04 A3042 RMK A01 T00490040  RH  094%=      5-min Rain = 0
KTH1 131707Z 13007KT 05/04 A3042 RMK A01 T00500042  RH  095%=      5-min Rain = 0
KTH1 131708Z 14007KT 05/04 A3042 RMK A01 T00510043  RH  094%=      5-min Rain = 0
KTH1 131709Z 14005KT 05/04 A3042 RMK A01 T00530044  RH  094%=      5-min Rain = 0
KTH1 131710Z 13006KT 05/05 A3042 RMK A01 T00540046  RH  094%=      5-min Rain = 0
KTH1 131711Z 14006KT 06/05 A3042 RMK A01 T00550046  RH  094%=      5-min Rain = 0
KTH1 131712Z 14006KT 06/05 A3042 RMK A01 T00550045  RH  093%=      5-min Rain = 0
KTH1 131713Z 14005KT 06/04 A3042 RMK A01 T00550043  RH  092%=      5-min Rain = 0
KTH1 131714Z 13006KT 06/04 A3042 RMK A01 T00550044  RH  093%=      5-min Rain = 0
KTH1 131715Z 15007KT 06/04 A3042 RMK A01 T00550044  RH  093%=      5-min Rain = 0
KTH1 131716Z 15006KT 06/04 A3041 RMK A01 T00550043  RH  092%=      5-min Rain = 0
KTH1 131717Z 14006KT 06/04 A3041 RMK A01 T00560044  RH  092%=      5-min Rain = 0
KTH1 131718Z 12005KT 06/04 A3041 RMK A01 T00550043  RH  092%=      5-min Rain = 0
KTH1 131719Z 11007KT 06/04 A3041 RMK A01 T00560044  RH  092%=      5-min Rain = 0
KTH1 131720Z 12005KT 06/04 A3041 RMK A01 T00560042  RH  091%=      5-min Rain = 0
KTH1 131721Z 12006KT 06/04 A3041 RMK A01 T00550042  RH  091%=      5-min Rain = 0
KTH1 131722Z 13007KT 06/04 A3041 RMK A01 T00550043  RH  092%=      5-min Rain = 0
KTH1 131723Z 14005KT 06/04 A3041 RMK A01 T00550043  RH  092%=      5-min Rain = 0
KTH1 131724Z 15006KT 06/04 A3041 RMK A01 T00550043  RH  092%=      5-min Rain = 0
KTH1 131725Z 16004KT 06/04 A3041 RMK A01 T00550043  RH  092%=      5-min Rain = 0
KTH1 131726Z 13004KT 06/04 A3041 RMK A01 T00560044  RH  092%=      5-min Rain = 0
KTH1 131727Z 14004KT 06/04 A3041 RMK A01 T00560044  RH  092%=      5-min Rain = 0
KTH1 131728Z 14004KT 06/05 A3041 RMK A01 T00570045  RH  092%=      5-min Rain = 0
KTH1 131729Z 13004KT 06/05 A3041 RMK A01 T00580046  RH  092%=      5-min Rain = 0
KTH1 131730Z 12004KT 06/05 A3041 RMK A01 T00590047  RH  092%=      5-min Rain = 0
KTH1 131731Z 12006KT 06/05 A3041 RMK A01 T00580045  RH  091%=      5-min Rain = 0
KTH1 131732Z 12005KT 06/04 A3041 RMK A01 T00570042  RH  090%=      5-min Rain = 0
KTH1 131733Z 12005KT 06/04 A3041 RMK A01 T00560042  RH  091%=      5-min Rain = 0
KTH1 131734Z 12005KT 06/04 A3041 RMK A01 T00560042  RH  091%=      5-min Rain = 0
KTH1 131735Z 13006KT 06/04 A3041 RMK A01 T00560042  RH  091%=      5-min Rain = 0
KTH1 131736Z 12006KT 06/04 A3041 RMK A01 T00550041  RH  091%=      5-min Rain = 0
KTH1 131737Z 12007KT 06/04 A304 RMK A01 T00550041  RH  091%=      5-min Rain = 0
KTH1 131738Z 13005KT 06/04 A3041 RMK A01 T00550041  RH  091%=      5-min Rain = 0
KTH1 131739Z 13005KT 06/04 A3041 RMK A01 T00550042  RH  091%=      5-min Rain = 0
KTH1 131740Z 12004KT 06/04 A3041 RMK A01 T00560044  RH  092%=      5-min Rain = 0
KTH1 131741Z 12004KT 06/04 A3041 RMK A01 T00560043  RH  091%=      5-min Rain = 0
KTH1 131742Z 13003KT 06/04 A3041 RMK A01 T00560043  RH  091%=      5-min Rain = 0
KTH1 131743Z 13004KT 06/05 A3041 RMK A01 T00570045  RH  092%=      5-min Rain = 0
KTH1 131744Z 13005KT 06/05 A3041 RMK A01 T00580045  RH  092%=      5-min Rain = 0
KTH1 131745Z 13005KT 06/04 A3041 RMK A01 T00580043  RH  090%=      5-min Rain = 0
KTH1 131746Z 13004KT 06/04 A3041 RMK A01 T00580044  RH  091%=      5-min Rain = 0
KTH1 131747Z 13005KT 06/04 A304 RMK A01 T00590044  RH  091%=      5-min Rain = 0
KTH1 131748Z 12003KT 06/04 A304 RMK A01 T00590043  RH  090%=      5-min Rain = 0
KTH1 131749Z 13002KT 06/04 A304 RMK A01 T00600044  RH  090%=      5-min Rain = 0
KTH1 131750Z 12005KT 06/05 A304 RMK A01 T00610047  RH  091%=      5-min Rain = 0
KTH1 131751Z 13006KT 06/05 A304 RMK A01 T00620047  RH  090%=      5-min Rain = 0
KTH1 131752Z 13004KT 06/05 A304 RMK A01 T00620045  RH  089%=      5-min Rain = 0
KTH1 131753Z 13005KT 06/05 A304 RMK A01 T00620047  RH  090%=      5-min Rain = 0
KTH1 131754Z 14004KT 06/05 A304 RMK A01 T00630047  RH  090%=      5-min Rain = 0
KTH1 131755Z 13005KT 06/05 A304 RMK A01 T00640048  RH  089%=      5-min Rain = 0
KTH1 131756Z 12004KT 06/05 A304 RMK A01 T00640046  RH  088%=      5-min Rain = 0
KTH1 131757Z 12005KT 06/04 A304 RMK A01 T00640044  RH  087%=      5-min Rain = 0
KTH1 131758Z 14005KT 06/04 A304 RMK A01 T00630043  RH  087%=      5-min Rain = 0
KTH1 131759Z 13007KT 06/04 A304 RMK A01 T00620044  RH  088%=      5-min Rain = 0
KTH1 131800Z 13006KT 06/04 A304 RMK A01 T00630044  RH  088%=      5-min Rain = 0
KTH1 131801Z 14005KT 06/04 A304 RMK A01 T00620042  RH  087%=      5-min Rain = 0
KTH1 131802Z 14005KT 06/04 A304 RMK A01 T00620042  RH  087%=      5-min Rain = 0
KTH1 131803Z 13006KT 06/04 A304 RMK A01 T00610041  RH  087%=      5-min Rain = 0
KTH1 131804Z 13004KT 06/04 A304 RMK A01 T00610042  RH  088%=      5-min Rain = 0
KTH1 131805Z 14004KT 06/04 A304 RMK A01 T00610044  RH  089%=      5-min Rain = 0
KTH1 131806Z 15004KT 06/05 A304 RMK A01 T00620045  RH  088%=      5-min Rain = 0
KTH1 131807Z 14005KT 06/04 A304 RMK A01 T00630044  RH  088%=      5-min Rain = 0
KTH1 131808Z 13005KT 06/05 A304 RMK A01 T00640045  RH  088%=      5-min Rain = 0
KTH1 131809Z 15004KT 06/05 A3039 RMK A01 T00640045  RH  088%=      5-min Rain = 0
KTH1 131810Z 13005KT 07/05 A3039 RMK A01 T00650046  RH  088%=      5-min Rain = 0
KTH1 131811Z 14007KT 07/05 A3039 RMK A01 T00660046  RH  087%=      5-min Rain = 0
KTH1 131812Z 14006KT 07/05 A304 RMK A01 T00660046  RH  087%=      5-min Rain = 0
KTH1 131813Z 15003KT 07/05 A304 RMK A01 T00670048  RH  087%=      5-min Rain = 0
KTH1 131814Z 15004KT 07/05 A304 RMK A01 T00690049  RH  087%=      5-min Rain = 0
KTH1 131815Z 15004KT 07/05 A304 RMK A01 T00690047  RH  086%=      5-min Rain = 0
KTH1 131816Z 16005KT 07/05 A304 RMK A01 T00690046  RH  085%=      5-min Rain = 0
KTH1 131817Z 15006KT 07/04 A3039 RMK A01 T00690044  RH  084%=      5-min Rain = 0
KTH1 131818Z 14006KT 07/05 A3039 RMK A01 T00680045  RH  085%=      5-min Rain = 0
KTH1 131819Z 15006KT 07/05 A3039 RMK A01 T00680045  RH  085%=      5-min Rain = 0
KTH1 131820Z 14006KT 07/04 A3039 RMK A01 T00680044  RH  085%=      5-min Rain = 0
KTH1 131821Z 13006KT 07/04 A3039 RMK A01 T00680044  RH  085%=      5-min Rain = 0
KTH1 131822Z 15006KT 07/04 A3039 RMK A01 T00680044  RH  085%=      5-min Rain = 0
KTH1 131823Z 16006KT 07/05 A3039 RMK A01 T00680045  RH  085%=      5-min Rain = 0
KTH1 131824Z 15005KT 07/05 A3039 RMK A01 T00700046  RH  085%=      5-min Rain = 0
KTH1 131825Z 13006KT 07/05 A3039 RMK A01 T00710046  RH  084%=      5-min Rain = 0
KTH1 131826Z 12005KT 07/04 A3039 RMK A01 T00710044  RH  083%=      5-min Rain = 0
KTH1 131827Z 12006KT 07/05 A3039 RMK A01 T00710045  RH  084%=      5-min Rain = 0
KTH1 131828Z 15005KT 07/05 A3039 RMK A01 T00710045  RH  084%=      5-min Rain = 0
KTH1 131829Z 14006KT 07/05 A3039 RMK A01 T00720047  RH  084%=      5-min Rain = 0
KTH1 131830Z 14006KT 07/05 A3038 RMK A01 T00730045  RH  083%=      5-min Rain = 0
KTH1 131831Z 14005KT 07/04 A3038 RMK A01 T00730044  RH  082%=      5-min Rain = 0
KTH1 131832Z 13005KT 07/04 A3038 RMK A01 T00720044  RH  082%=      5-min Rain = 0
KTH1 131833Z 14005KT 07/05 A3038 RMK A01 T00730045  RH  083%=      5-min Rain = 0
KTH1 131834Z 13004KT 07/04 A3038 RMK A01 T00730044  RH  082%=      5-min Rain = 0
KTH1 131835Z 12005KT 07/05 A3038 RMK A01 T00730045  RH  082%=      5-min Rain = 0
KTH1 131836Z 11004KT 07/04 A3038 RMK A01 T00730044  RH  082%=      5-min Rain = 0
KTH1 131837Z 13006KT 07/04 A3038 RMK A01 T00730043  RH  082%=      5-min Rain = 0
KTH1 131838Z 14005KT 07/04 A3038 RMK A01 T00730044  RH  082%=      5-min Rain = 0
KTH1 131839Z 14006KT 07/05 A3038 RMK A01 T00730045  RH  082%=      5-min Rain = 0
KTH1 131840Z 13006KT 07/04 A3038 RMK A01 T00730044  RH  082%=      5-min Rain = 0
KTH1 131841Z 13006KT 07/04 A3038 RMK A01 T00730043  RH  081%=      5-min Rain = 0
KTH1 131842Z 14005KT 07/04 A3038 RMK A01 T00730043  RH  081%=      5-min Rain = 0
KTH1 131843Z 14004KT 07/04 A3038 RMK A01 T00730043  RH  081%=      5-min Rain = 0
KTH1 131844Z 16004KT 07/05 A3038 RMK A01 T00740046  RH  083%=      5-min Rain = 0
KTH1 131845Z 16005KT 08/05 A3038 RMK A01 T00750046  RH  082%=      5-min Rain = 0
KTH1 131846Z 16005KT 08/05 A3038 RMK A01 T00760046  RH  082%=      5-min Rain = 0
KTH1 131847Z 13005KT 08/05 A3038 RMK A01 T00770047  RH  081%=      5-min Rain = 0
KTH1 131848Z 11004KT 08/05 A3038 RMK A01 T00770046  RH  081%=      5-min Rain = 0
KTH1 131849Z 14003KT 08/05 A3037 RMK A01 T00760046  RH  081%=      5-min Rain = 0
KTH1 131850Z 16005KT 08/05 A3037 RMK A01 T00760049  RH  083%=      5-min Rain = 0
KTH1 131851Z 14006KT 08/05 A3037 RMK A01 T00770047  RH  081%=      5-min Rain = 0
KTH1 131852Z 13005KT 08/05 A3037 RMK A01 T00760045  RH  080%=      5-min Rain = 0
KTH1 131853Z 14006KT 08/05 A3037 RMK A01 T00760046  RH  081%=      5-min Rain = 0
KTH1 131854Z 14006KT 08/05 A3037 RMK A01 T00770045  RH  080%=      5-min Rain = 0
KTH1 131855Z 13005KT 08/04 A3037 RMK A01 T00770043  RH  079%=      5-min Rain = 0
KTH1 131856Z 13004KT 08/04 A3037 RMK A01 T00760043  RH  079%=      5-min Rain = 0
KTH1 131857Z 12003KT 08/04 A3037 RMK A01 T00760043  RH  080%=      5-min Rain = 0
KTH1 131858Z 13006KT 08/04 A3037 RMK A01 T00760043  RH  080%=      5-min Rain = 0
KTH1 131859Z 14006KT 08/04 A3037 RMK A01 T00760042  RH  079%=      5-min Rain = 0
KTH1 131900Z 13007KT 08/04 A3037 RMK A01 T00760043  RH  079%=      5-min Rain = 0
KTH1 131901Z 13007KT 08/04 A3037 RMK A01 T00770043  RH  079%=      5-min Rain = 0
KTH1 131902Z 13006KT 08/04 A3037 RMK A01 T00770042  RH  078%=      5-min Rain = 0
KTH1 131903Z 14006KT 08/04 A3037 RMK A01 T00770042  RH  079%=      5-min Rain = 0
KTH1 131904Z 12006KT 08/04 A3037 RMK A01 T00770043  RH  079%=      5-min Rain = 0
KTH1 131905Z 12005KT 08/04 A3037 RMK A01 T00780043  RH  079%=      5-min Rain = 0
KTH1 131906Z 12007KT 08/04 A3037 RMK A01 T00770042  RH  078%=      5-min Rain = 0
KTH1 131907Z 13007KT 08/04 A3037 RMK A01 T00780043  RH  078%=      5-min Rain = 0
KTH1 131908Z 13007KT 08/04 A3037 RMK A01 T00790043  RH  078%=      5-min Rain = 0
KTH1 131909Z 13008KT 08/04 A3037 RMK A01 T00790043  RH  077%=      5-min Rain = 0
KTH1 131910Z 12007KT 08/04 A3037 RMK A01 T00790041  RH  076%=      5-min Rain = 0
KTH1 131911Z 12007KT 08/04 A3037 RMK A01 T00790040  RH  077%=      5-min Rain = 0
KTH1 131912Z 11006KT 08/04 A3037 RMK A01 T00780039  RH  077%=      5-min Rain = 0
KTH1 131913Z 12006KT 08/04 A3037 RMK A01 T00780040  RH  077%=      5-min Rain = 0
KTH1 131914Z 13007KT 08/04 A3037 RMK A01 T00780041  RH  077%=      5-min Rain = 0
KTH1 131915Z 14006KT 08/04 A3037 RMK A01 T00790041  RH  077%=      5-min Rain = 0
KTH1 131916Z 14006KT 08/04 A3037 RMK A01 T00800041  RH  076%=      5-min Rain = 0
KTH1 131917Z 13005KT 08/04 A3037 RMK A01 T00820043  RH  077%=      5-min Rain = 0
KTH1 131918Z 14007KT 08/04 A3037 RMK A01 T00840044  RH  076%=      5-min Rain = 0
KTH1 131919Z 15007KT 09/04 A3037 RMK A01 T00850042  RH  075%=      5-min Rain = 0
KTH1 131920Z 15007KT 09/04 A3036 RMK A01 T00850042  RH  074%=      5-min Rain = 0
KTH1 131921Z 16006KT 09/04 A3036 RMK A01 T00850042  RH  074%=      5-min Rain = 0
KTH1 131922Z 12005KT 09/04 A3036 RMK A01 T00850041  RH  074%=      5-min Rain = 0
KTH1 131923Z 12006KT 08/04 A3036 RMK A01 T00840041  RH  074%=      5-min Rain = 0
KTH1 131924Z 14005KT 08/04 A3036 RMK A01 T00830041  RH  075%=      5-min Rain = 0
KTH1 131925Z 12006KT 08/04 A3036 RMK A01 T00830042  RH  075%=      5-min Rain = 0
KTH1 131926Z 14005KT 08/04 A3036 RMK A01 T00840041  RH  075%=      5-min Rain = 0
KTH1 131927Z 15005KT 08/04 A3036 RMK A01 T00830041  RH  075%=      5-min Rain = 0
KTH1 131928Z 12005KT 08/04 A3036 RMK A01 T00840041  RH  075%=      5-min Rain = 0
KTH1 131929Z 12004KT 08/04 A3036 RMK A01 T00840041  RH  074%=      5-min Rain = 0
KTH1 131930Z 16005KT 08/04 A3036 RMK A01 T00840040  RH  074%=      5-min Rain = 0
KTH1 131931Z 13006KT 08/04 A3036 RMK A01 T00840040  RH  074%=      5-min Rain = 0
KTH1 131932Z 12005KT 08/04 A3036 RMK A01 T00840040  RH  074%=      5-min Rain = 0
KTH1 131933Z 12005KT 08/04 A3036 RMK A01 T00840040  RH  074%=      5-min Rain = 0
KTH1 131934Z 13005KT 08/04 A3036 RMK A01 T00840041  RH  074%=      5-min Rain = 0
KTH1 131935Z 13007KT 08/04 A3035 RMK A01 T00840041  RH  074%=      5-min Rain = 0
KTH1 131936Z 13007KT 08/04 A3035 RMK A01 T00840040  RH  074%=      5-min Rain = 0
KTH1 131937Z 13005KT 08/04 A3035 RMK A01 T00830040  RH  074%=      5-min Rain = 0
KTH1 131938Z 15005KT 08/04 A3035 RMK A01 T00830040  RH  075%=      5-min Rain = 0
KTH1 131939Z 15003KT 08/04 A3035 RMK A01 T00820040  RH  075%=      5-min Rain = 0
KTH1 131940Z 12003KT 08/04 A3035 RMK A01 T00830040  RH  075%=      5-min Rain = 0
KTH1 131941Z 14004KT 08/04 A3035 RMK A01 T00830040  RH  074%=      5-min Rain = 0
KTH1 131942Z 13004KT 08/04 A3035 RMK A01 T00830039  RH  074%=      5-min Rain = 0
KTH1 131943Z 13005KT 08/04 A3035 RMK A01 T00820038  RH  074%=      5-min Rain = 0
KTH1 131944Z 14004KT 08/04 A3035 RMK A01 T00800036  RH  074%=      5-min Rain = 0
KTH1 131945Z 13005KT 08/04 A3035 RMK A01 T00800037  RH  074%=      5-min Rain = 0
KTH1 131946Z 14004KT 08/04 A3035 RMK A01 T00800037  RH  075%=      5-min Rain = 0
KTH1 131947Z 13006KT 08/04 A3035 RMK A01 T00800036  RH  074%=      5-min Rain = 0
KTH1 131948Z 13007KT 08/04 A3035 RMK A01 T00800036  RH  074%=      5-min Rain = 0
KTH1 131949Z 12005KT 08/04 A3034 RMK A01 T00790036  RH  074%=      5-min Rain = 0
KTH1 131950Z 12005KT 08/04 A3034 RMK A01 T00790037  RH  074%=      5-min Rain = 0
KTH1 131951Z 12006KT 08/04 A3034 RMK A01 T00800037  RH  074%=      5-min Rain = 0
KTH1 131952Z 11005KT 08/04 A3034 RMK A01 T00800037  RH  074%=      5-min Rain = 0
KTH1 131953Z 12005KT 08/04 A3034 RMK A01 T00810037  RH  074%=      5-min Rain = 0
KTH1 131954Z 12006KT 08/04 A3034 RMK A01 T00820037  RH  073%=      5-min Rain = 0
KTH1 131955Z 13007KT 08/04 A3033 RMK A01 T00820036  RH  073%=      5-min Rain = 0
KTH1 131956Z 14007KT 08/04 A3033 RMK A01 T00820036  RH  073%=      5-min Rain = 0
KTH1 131957Z 12006KT 08/04 A3033 RMK A01 T00820036  RH  073%=      5-min Rain = 0
KTH1 131958Z 11008KT 08/04 A3033 RMK A01 T00820036  RH  073%=      5-min Rain = 0
KTH1 131959Z 11006KT 08/04 A3033 RMK A01 T00820036  RH  072%=      5-min Rain = 0
KTH1 132000Z 12007KT 08/04 A3033 RMK A01 T00810036  RH  073%=      5-min Rain = 0
KTH1 132001Z 12007KT 08/04 A3033 RMK A01 T00810036  RH  073%=      5-min Rain = 0
KTH1 132002Z 13007KT 08/04 A3033 RMK A01 T00810036  RH  073%=      5-min Rain = 0
KTH1 132003Z 12006KT 08/04 A3033 RMK A01 T00820037  RH  073%=      5-min Rain = 0
KTH1 132004Z 11006KT 08/04 A3033 RMK A01 T00810036  RH  073%=      5-min Rain = 0
KTH1 132005Z 11007KT 08/04 A3032 RMK A01 T00820036  RH  073%=      5-min Rain = 0
KTH1 132006Z 12006KT 08/04 A3032 RMK A01 T00820036  RH  073%=      5-min Rain = 0
KTH1 132007Z 11005KT 08/04 A3032 RMK A01 T00810035  RH  073%=      5-min Rain = 0
KTH1 132008Z 11007KT 08/04 A3032 RMK A01 T00810036  RH  073%=      5-min Rain = 0
KTH1 132009Z 11006KT 08/04 A3032 RMK A01 T00830037  RH  073%=      5-min Rain = 0
KTH1 132010Z 10006KT 08/04 A3033 RMK A01 T00830035  RH  072%=      5-min Rain = 0
KTH1 132011Z 12005KT 08/04 A3033 RMK A01 T00820035  RH  072%=      5-min Rain = 0
KTH1 132012Z 12005KT 08/04 A3033 RMK A01 T00820035  RH  073%=      5-min Rain = 0
KTH1 132013Z 13006KT 08/04 A3033 RMK A01 T00820035  RH  073%=      5-min Rain = 0
KTH1 132014Z 13006KT 08/04 A3033 RMK A01 T00820035  RH  072%=      5-min Rain = 0
KTH1 132015Z 13005G10KT 08/04 A3033 RMK A01 T00830035  RH  072%=      5-min Rain = 0
KTH1 132016Z 13007KT 08/04 A3032 RMK A01 T00830036  RH  072%=      5-min Rain = 0
KTH1 132017Z 12006KT 08/04 A3032 RMK A01 T00840036  RH  072%=      5-min Rain = 0
KTH1 132018Z 11005KT 08/04 A3032 RMK A01 T00840037  RH  072%=      5-min Rain = 0
KTH1 132019Z 12006KT 09/04 A3032 RMK A01 T00860038  RH  072%=      5-min Rain = 0
KTH1 132020Z 12006KT 09/04 A3032 RMK A01 T00870038  RH  071%=      5-min Rain = 0
KTH1 132021Z 11008KT 09/04 A3032 RMK A01 T00880038  RH  071%=      5-min Rain = 0
KTH1 132022Z 12006KT 09/04 A3032 RMK A01 T00880038  RH  071%=      5-min Rain = 0
KTH1 132023Z 12009KT 09/04 A3032 RMK A01 T00880040  RH  072%=      5-min Rain = 0
KTH1 132024Z 11009KT 09/04 A3032 RMK A01 T00880038  RH  071%=      5-min Rain = 0
KTH1 132025Z 12007KT 09/04 A3032 RMK A01 T00880038  RH  071%=      5-min Rain = 0
KTH1 132026Z 11006KT 09/04 A3032 RMK A01 T00880039  RH  071%=      5-min Rain = 0
KTH1 132027Z 13007KT 09/04 A3032 RMK A01 T00880039  RH  071%=      5-min Rain = 0
KTH1 132028Z 13006KT 09/04 A3032 RMK A01 T00890039  RH  071%=      5-min Rain = 0
KTH1 132029Z 12006KT 09/04 A3032 RMK A01 T00890039  RH  071%=      5-min Rain = 0
KTH1 132030Z 11008KT 09/04 A3032 RMK A01 T00890039  RH  071%=      5-min Rain = 0
KTH1 132031Z 11006KT 09/04 A3032 RMK A01 T00880040  RH  072%=      5-min Rain = 0
KTH1 132032Z 12007KT 09/04 A3032 RMK A01 T00880039  RH  072%=      5-min Rain = 0
KTH1 132033Z 14006KT 09/04 A3032 RMK A01 T00870040  RH  072%=      5-min Rain = 0
KTH1 132034Z 14007KT 09/04 A3032 RMK A01 T00890041  RH  072%=      5-min Rain = 0
KTH1 132035Z 14008KT 09/04 A3032 RMK A01 T00900041  RH  071%=      5-min Rain = 0
KTH1 132036Z 14005KT 09/04 A3032 RMK A01 T00900041  RH  071%=      5-min Rain = 0
KTH1 132037Z 14005KT 09/04 A3032 RMK A01 T00910041  RH  071%=      5-min Rain = 0
KTH1 132038Z 13006KT 09/04 A3032 RMK A01 T00910041  RH  071%=      5-min Rain = 0
KTH1 132039Z 13006KT 09/04 A3032 RMK A01 T00910042  RH  071%=      5-min Rain = 0
KTH1 132040Z 14007KT 09/04 A3032 RMK A01 T00920043  RH  071%=      5-min Rain = 0
KTH1 132041Z 13006KT 09/04 A3032 RMK A01 T00920044  RH  072%=      5-min Rain = 0
KTH1 132042Z 13006KT 09/04 A3032 RMK A01 T00920044  RH  072%=      5-min Rain = 0
KTH1 132043Z 13005KT 09/04 A3032 RMK A01 T00930044  RH  072%=      5-min Rain = 0
KTH1 132044Z 14007KT 09/05 A3032 RMK A01 T00940045  RH  071%=      5-min Rain = 0
KTH1 132045Z 14008KT 09/05 A3032 RMK A01 T00940045  RH  071%=      5-min Rain = 0
KTH1 132046Z 15006KT 09/05 A3032 RMK A01 T00940045  RH  071%=      5-min Rain = 0
KTH1 132047Z 17005KT 09/05 A3032 RMK A01 T00940046  RH  072%=      5-min Rain = 0
KTH1 132048Z 16004KT 10/05 A3032 RMK A01 T00950047  RH  072%=      5-min Rain = 0
KTH1 132049Z 14005KT 10/05 A3032 RMK A01 T00960048  RH  072%=      5-min Rain = 0
KTH1 132050Z 13006KT 10/05 A3032 RMK A01 T00970048  RH  072%=      5-min Rain = 0
KTH1 132051Z 14006KT 10/05 A3032 RMK A01 T00970048  RH  072%=      5-min Rain = 0
KTH1 132052Z 13007KT 10/05 A3032 RMK A01 T00970048  RH  072%=      5-min Rain = 0
KTH1 132053Z 14006KT 10/05 A3032 RMK A01 T00970049  RH  072%=      5-min Rain = 0
KTH1 132054Z 14006KT 10/05 A3032 RMK A01 T00970049  RH  072%=      5-min Rain = 0
KTH1 132055Z 15006KT 10/05 A3032 RMK A01 T00990049  RH  071%=      5-min Rain = 0
KTH1 132056Z 15009KT 10/05 A3032 RMK A01 T00980049  RH  071%=      5-min Rain = 0
KTH1 132057Z 15008KT 10/05 A3032 RMK A01 T00990049  RH  071%=      5-min Rain = 0
KTH1 132058Z 13006KT 10/05 A3032 RMK A01 T00990049  RH  071%=      5-min Rain = 0
KTH1 132059Z 14005KT 10/05 A3032 RMK A01 T01000050  RH  071%=      5-min Rain = 0
KTH1 132100Z 16005KT 10/05 A3032 RMK A01 T01020050  RH  070%=      5-min Rain = 0
KTH1 132101Z 16007KT 10/05 A3032 RMK A01 T01030050  RH  069%=      5-min Rain = 0
KTH1 132102Z 13007KT 10/05 A3032 RMK A01 T01040049  RH  069%=      5-min Rain = 0
KTH1 132103Z 13007KT 10/05 A3032 RMK A01 T01030048  RH  069%=      5-min Rain = 0
KTH1 132104Z 13007KT 10/05 A3032 RMK A01 T01000047  RH  069%=      5-min Rain = 0
KTH1 132105Z 12006KT 10/05 A3031 RMK A01 T01000048  RH  070%=      5-min Rain = 0
KTH1 132106Z 13006KT 10/05 A3032 RMK A01 T01010048  RH  070%=      5-min Rain = 0
KTH1 132107Z 14007KT 10/05 A3032 RMK A01 T01020048  RH  069%=      5-min Rain = 0
KTH1 132108Z 14006KT 10/05 A3032 RMK A01 T01020047  RH  069%=      5-min Rain = 0
KTH1 132109Z 16005KT 10/05 A3032 RMK A01 T01020047  RH  069%=      5-min Rain = 0
KTH1 132110Z 17005KT 10/05 A3032 RMK A01 T01020049  RH  069%=      5-min Rain = 0
KTH1 132111Z 16006KT 10/05 A3032 RMK A01 T01020048  RH  069%=      5-min Rain = 0
KTH1 132112Z 16006KT 10/05 A3032 RMK A01 T01020049  RH  069%=      5-min Rain = 0
KTH1 132113Z 15010KT 10/05 A3032 RMK A01 T01030049  RH  069%=      5-min Rain = 0
KTH1 132114Z 15007KT 10/05 A3032 RMK A01 T01030048  RH  068%=      5-min Rain = 0
KTH1 132115Z 17005KT 10/05 A3031 RMK A01 T01030047  RH  069%=      5-min Rain = 0
KTH1 132116Z 16006KT 10/05 A3031 RMK A01 T01030048  RH  068%=      5-min Rain = 0
KTH1 132117Z 16007KT 10/05 A3031 RMK A01 T01040047  RH  068%=      5-min Rain = 0
KTH1 132118Z 15006KT 10/05 A3031 RMK A01 T01040046  RH  067%=      5-min Rain = 0
KTH1 132119Z 12006KT 10/05 A3031 RMK A01 T01040047  RH  068%=      5-min Rain = 0
KTH1 132120Z 13004KT 11/05 A3031 RMK A01 T01050049  RH  068%=      5-min Rain = 0
KTH1 132121Z 15006KT 11/05 A3031 RMK A01 T01070050  RH  068%=      5-min Rain = 0
KTH1 132122Z 16006KT 11/05 A3031 RMK A01 T01080050  RH  067%=      5-min Rain = 0
KTH1 132123Z 15005KT 11/05 A3031 RMK A01 T01090050  RH  067%=      5-min Rain = 0
KTH1 132124Z 14007KT 11/05 A3031 RMK A01 T01090050  RH  067%=      5-min Rain = 0
KTH1 132125Z 14007KT 11/05 A3031 RMK A01 T01100050  RH  066%=      5-min Rain = 0
KTH1 132126Z 14005KT 11/05 A3031 RMK A01 T01100050  RH  066%=      5-min Rain = 0
KTH1 132127Z 15007KT 11/05 A3031 RMK A01 T01130052  RH  066%=      5-min Rain = 0
KTH1 132128Z 14009KT 12/05 A303 RMK A01 T01160052  RH  065%=      5-min Rain = 0
KTH1 132129Z 13008KT 12/06 A303 RMK A01 T01180055  RH  065%=      5-min Rain = 0
KTH1 132130Z 14005KT 12/05 A303 RMK A01 T01210054  RH  064%=      5-min Rain = 0
KTH1 132131Z 15008KT 12/05 A303 RMK A01 T01220054  RH  063%=      5-min Rain = 0
KTH1 132132Z 16007KT 12/05 A303 RMK A01 T01230053  RH  062%=      5-min Rain = 0
KTH1 132133Z 17008KT 12/05 A303 RMK A01 T01230054  RH  063%=      5-min Rain = 0
KTH1 132134Z 17010KT 12/05 A303 RMK A01 T01220052  RH  062%=      5-min Rain = 0
KTH1 132135Z 17007KT 12/05 A303 RMK A01 T01200052  RH  063%=      5-min Rain = 0
KTH1 132136Z 17008KT 12/05 A303 RMK A01 T01200053  RH  063%=      5-min Rain = 0
KTH1 132137Z 16009KT 12/05 A303 RMK A01 T01200053  RH  063%=      5-min Rain = 0
KTH1 132138Z 15010KT 12/05 A303 RMK A01 T01180051  RH  064%=      5-min Rain = 0
KTH1 132139Z 16008KT 12/05 A303 RMK A01 T01180053  RH  064%=      5-min Rain = 0
KTH1 132140Z 17009KT 12/05 A303 RMK A01 T01190053  RH  064%=      5-min Rain = 0
KTH1 132141Z 17006KT 12/05 A303 RMK A01 T01200053  RH  064%=      5-min Rain = 0
KTH1 132142Z 17006KT 12/05 A303 RMK A01 T01200054  RH  064%=      5-min Rain = 0
KTH1 132143Z 16009KT 12/06 A303 RMK A01 T01230055  RH  063%=      5-min Rain = 0
KTH1 132144Z 17008KT 12/05 A303 RMK A01 T01240054  RH  062%=      5-min Rain = 0
KTH1 132145Z 18010KT 12/05 A303 RMK A01 T01220054  RH  063%=      5-min Rain = 0
KTH1 132146Z 17009KT 12/05 A303 RMK A01 T01210054  RH  063%=      5-min Rain = 0
KTH1 132147Z 17006KT 12/05 A303 RMK A01 T01210054  RH  064%=      5-min Rain = 0
KTH1 132148Z 17010KT 12/06 A303 RMK A01 T01210055  RH  064%=      5-min Rain = 0
KTH1 132149Z 17008KT 12/06 A3029 RMK A01 T01210055  RH  064%=      5-min Rain = 0
KTH1 132150Z 16005KT 12/06 A3029 RMK A01 T01200055  RH  065%=      5-min Rain = 0
KTH1 132151Z 15006KT 12/06 A3029 RMK A01 T01200056  RH  065%=      5-min Rain = 0
KTH1 132152Z 15006KT 12/06 A3029 RMK A01 T01200056  RH  065%=      5-min Rain = 0
KTH1 132153Z 14008KT 12/06 A3029 RMK A01 T01210057  RH  065%=      5-min Rain = 0
KTH1 132154Z 14008KT 12/06 A3029 RMK A01 T01220057  RH  064%=      5-min Rain = 0
KTH1 132155Z 16008KT 12/06 A3029 RMK A01 T01220057  RH  064%=      5-min Rain = 0
KTH1 132156Z 15008KT 12/06 A3029 RMK A01 T01220057  RH  064%=      5-min Rain = 0
KTH1 132157Z 13006KT 12/06 A3029 RMK A01 T01220057  RH  064%=      5-min Rain = 0
KTH1 132158Z 14006KT 12/06 A3029 RMK A01 T01210056  RH  064%=      5-min Rain = 0
KTH1 132159Z 12008KT 12/06 A3029 RMK A01 T01210057  RH  065%=      5-min Rain = 0
KTH1 132200Z 13008KT 12/06 A3029 RMK A01 T01210056  RH  064%=      5-min Rain = 0
KTH1 132201Z 13008KT 12/06 A3029 RMK A01 T01200055  RH  064%=      5-min Rain = 0
KTH1 132202Z 13005KT 12/06 A3029 RMK A01 T01190055  RH  065%=      5-min Rain = 0
KTH1 132203Z 13009KT 12/06 A3029 RMK A01 T01180055  RH  065%=      5-min Rain = 0
KTH1 132204Z 14009KT 12/06 A3029 RMK A01 T01180055  RH  065%=      5-min Rain = 0
KTH1 132205Z 15008KT 12/06 A3029 RMK A01 T01180055  RH  065%=      5-min Rain = 0
KTH1 132206Z 15004KT 12/06 A3029 RMK A01 T01180055  RH  065%=      5-min Rain = 0
KTH1 132207Z 14006KT 12/06 A3029 RMK A01 T01180055  RH  065%=      5-min Rain = 0
KTH1 132208Z 13008KT 12/06 A3029 RMK A01 T01190056  RH  065%=      5-min Rain = 0
KTH1 132209Z 14009KT 12/06 A3029 RMK A01 T01190055  RH  065%=      5-min Rain = 0
KTH1 132210Z 14008KT 12/06 A3029 RMK A01 T01190055  RH  065%=      5-min Rain = 0
KTH1 132211Z 13005KT 12/06 A3029 RMK A01 T01200055  RH  065%=      5-min Rain = 0
KTH1 132212Z 13010KT 12/06 A3029 RMK A01 T01200056  RH  065%=      5-min Rain = 0
KTH1 132213Z 13008KT 12/06 A3029 RMK A01 T01210056  RH  064%=      5-min Rain = 0
KTH1 132214Z 14008KT 12/06 A3029 RMK A01 T01210056  RH  064%=      5-min Rain = 0
KTH1 132215Z 14007KT 12/06 A3029 RMK A01 T01210056  RH  064%=      5-min Rain = 0
KTH1 132216Z 14008KT 12/06 A3029 RMK A01 T01210055  RH  064%=      5-min Rain = 0
KTH1 132217Z 15008KT 12/06 A3029 RMK A01 T01210055  RH  064%=      5-min Rain = 0
KTH1 132218Z 13005KT 12/06 A3029 RMK A01 T01210055  RH  064%=      5-min Rain = 0
KTH1 132219Z 12007KT 12/06 A3029 RMK A01 T01210056  RH  064%=      5-min Rain = 0
KTH1 132220Z 12007KT 12/06 A3029 RMK A01 T01200056  RH  065%=      5-min Rain = 0
KTH1 132221Z 12008KT 12/06 A3029 RMK A01 T01190056  RH  065%=      5-min Rain = 0
KTH1 132222Z 12008KT 12/06 A3029 RMK A01 T01190057  RH  066%=      5-min Rain = 0
KTH1 132223Z 13007KT 12/06 A3029 RMK A01 T01190057  RH  066%=      5-min Rain = 0
KTH1 132224Z 12007KT 12/06 A3029 RMK A01 T01190057  RH  066%=      5-min Rain = 0
KTH1 132225Z 12008KT 12/06 A3029 RMK A01 T01180057  RH  066%=      5-min Rain = 0
KTH1 132226Z 12007KT 12/06 A3029 RMK A01 T01190058  RH  066%=      5-min Rain = 0
KTH1 132227Z 14011KT 12/06 A3029 RMK A01 T01200058  RH  066%=      5-min Rain = 0
KTH1 132228Z 13008KT 12/06 A3029 RMK A01 T01210058  RH  065%=      5-min Rain = 0
KTH1 132229Z 12007KT 12/06 A3028 RMK A01 T01210058  RH  065%=      5-min Rain = 0
KTH1 132230Z 13008KT 12/06 A3028 RMK A01 T01210058  RH  065%=      5-min Rain = 0
KTH1 132231Z 13008KT 12/06 A3028 RMK A01 T01210058  RH  065%=      5-min Rain = 0
KTH1 132232Z 12010KT 12/06 A3028 RMK A01 T01220059  RH  065%=      5-min Rain = 0
KTH1 132233Z 13010KT 12/06 A3028 RMK A01 T01230060  RH  065%=      5-min Rain = 0
KTH1 132234Z 15007KT 12/06 A3028 RMK A01 T01220060  RH  066%=      5-min Rain = 0
KTH1 132235Z 15007KT 12/06 A3028 RMK A01 T01230061  RH  066%=      5-min Rain = 0
KTH1 132236Z 15008KT 12/06 A3028 RMK A01 T01240061  RH  065%=      5-min Rain = 0
KTH1 132237Z 13007KT 13/06 A3029 RMK A01 T01250061  RH  065%=      5-min Rain = 0
KTH1 132238Z 12007KT 13/06 A3029 RMK A01 T01250061  RH  065%=      5-min Rain = 0
KTH1 132239Z 13007KT 12/06 A3028 RMK A01 T01240061  RH  065%=      5-min Rain = 0
KTH1 132240Z 12007KT 12/06 A3028 RMK A01 T01240061  RH  066%=      5-min Rain = 0
KTH1 132241Z 13010KT 13/06 A3028 RMK A01 T01250061  RH  065%=      5-min Rain = 0
KTH1 132242Z 13008KT 13/06 A3029 RMK A01 T01250061  RH  065%=      5-min Rain = 0
KTH1 132243Z 12006KT 13/06 A3029 RMK A01 T01250061  RH  065%=      5-min Rain = 0
KTH1 132244Z 12006KT 13/06 A3028 RMK A01 T01250062  RH  065%=      5-min Rain = 0
KTH1 132245Z 14007KT 12/06 A3028 RMK A01 T01240062  RH  066%=      5-min Rain = 0
KTH1 132246Z 14009KT 13/06 A3028 RMK A01 T01250062  RH  065%=      5-min Rain = 0
KTH1 132247Z 14009KT 13/06 A3028 RMK A01 T01250062  RH  065%=      5-min Rain = 0
KTH1 132248Z 14010KT 13/06 A3028 RMK A01 T01250062  RH  065%=      5-min Rain = 0
KTH1 132249Z 15009KT 12/06 A3028 RMK A01 T01240062  RH  066%=      5-min Rain = 0
KTH1 132250Z 14007KT 12/06 A3028 RMK A01 T01230062  RH  066%=      5-min Rain = 0
KTH1 132251Z 14010KT 12/06 A3028 RMK A01 T01230062  RH  066%=      5-min Rain = 0
KTH1 132252Z 14009KT 12/06 A3028 RMK A01 T01230062  RH  066%=      5-min Rain = 0
KTH1 132253Z 14010KT 12/06 A3028 RMK A01 T01210062  RH  067%=      5-min Rain = 0
KTH1 132254Z 15009KT 12/06 A3028 RMK A01 T01200062  RH  068%=      5-min Rain = 0
KTH1 132255Z 15008KT 12/06 A3028 RMK A01 T01190061  RH  068%=      5-min Rain = 0
KTH1 132256Z 13007KT 12/06 A3028 RMK A01 T01190061  RH  068%=      5-min Rain = 0
KTH1 132257Z 14008KT 12/06 A3028 RMK A01 T01190061  RH  068%=      5-min Rain = 0
KTH1 132258Z 13007KT 12/06 A3028 RMK A01 T01190061  RH  068%=      5-min Rain = 0
KTH1 132259Z 14007KT 12/06 A3028 RMK A01 T01180061  RH  068%=      5-min Rain = 0
KTH1 132300Z 13008KT 12/06 A3028 RMK A01 T01180062  RH  068%=      5-min Rain = 0
KTH1 132301Z 14009KT 12/06 A3028 RMK A01 T01190062  RH  068%=      5-min Rain = 0
KTH1 132302Z 13008KT 12/06 A3028 RMK A01 T01190062  RH  068%=      5-min Rain = 0
KTH1 132303Z 13008KT 12/06 A3028 RMK A01 T01190062  RH  068%=      5-min Rain = 0
KTH1 132304Z 14008KT 12/06 A3028 RMK A01 T01190062  RH  068%=      5-min Rain = 0
KTH1 132305Z 13007KT 12/06 A3028 RMK A01 T01200063  RH  068%=      5-min Rain = 0
KTH1 132306Z 13009KT 12/06 A3028 RMK A01 T01190062  RH  068%=      5-min Rain = 0
KTH1 132307Z 13009KT 12/06 A3028 RMK A01 T01200062  RH  068%=      5-min Rain = 0
KTH1 132308Z 12008KT 12/06 A3028 RMK A01 T01190062  RH  068%=      5-min Rain = 0
KTH1 132309Z 12007KT 12/06 A3028 RMK A01 T01190061  RH  068%=      5-min Rain = 0
KTH1 132310Z 13005KT 12/06 A3028 RMK A01 T01180061  RH  068%=      5-min Rain = 0
KTH1 132311Z 13007KT 12/06 A3029 RMK A01 T01180062  RH  068%=      5-min Rain = 0
KTH1 132312Z 12008KT 12/06 A3028 RMK A01 T01190062  RH  068%=      5-min Rain = 0
KTH1 132313Z 14009KT 12/06 A3028 RMK A01 T01190061  RH  068%=      5-min Rain = 0
KTH1 132314Z 14008KT 12/06 A3028 RMK A01 T01190061  RH  068%=      5-min Rain = 0
KTH1 132315Z 13008KT 12/06 A3028 RMK A01 T01180061  RH  068%=      5-min Rain = 0
KTH1 132316Z 14009KT 12/06 A3028 RMK A01 T01180062  RH  068%=      5-min Rain = 0
KTH1 132317Z 14009KT 12/06 A3028 RMK A01 T01180061  RH  068%=      5-min Rain = 0
KTH1 132318Z 13006KT 12/06 A3029 RMK A01 T01180061  RH  068%=      5-min Rain = 0
KTH1 132319Z 16008KT 12/06 A3029 RMK A01 T01190060  RH  067%=      5-min Rain = 0
KTH1 132320Z 15007KT 12/06 A3029 RMK A01 T01190059  RH  067%=      5-min Rain = 0
KTH1 132321Z 14005KT 12/06 A3029 RMK A01 T01200059  RH  067%=      5-min Rain = 0
KTH1 132322Z 15005KT 12/06 A3029 RMK A01 T01200060  RH  067%=      5-min Rain = 0
KTH1 132323Z 13006KT 12/06 A3029 RMK A01 T01210059  RH  066%=      5-min Rain = 0
KTH1 132324Z 12007KT 12/06 A3029 RMK A01 T01210059  RH  066%=      5-min Rain = 0
KTH1 132325Z 12006KT 12/06 A3029 RMK A01 T01200059  RH  066%=      5-min Rain = 0
KTH1 132326Z 13007KT 12/06 A3029 RMK A01 T01200059  RH  066%=      5-min Rain = 0
KTH1 132327Z 14006KT 12/06 A3029 RMK A01 T01190058  RH  066%=      5-min Rain = 0
KTH1 132328Z 14005KT 12/06 A3029 RMK A01 T01180058  RH  067%=      5-min Rain = 0
KTH1 132329Z 14006KT 12/06 A3029 RMK A01 T01180058  RH  067%=      5-min Rain = 0
KTH1 132330Z 14005KT 12/06 A3029 RMK A01 T01180059  RH  067%=      5-min Rain = 0
KTH1 132331Z 13004KT 12/06 A3029 RMK A01 T01180059  RH  067%=      5-min Rain = 0
KTH1 132332Z 14008KT 12/06 A3029 RMK A01 T01180059  RH  067%=      5-min Rain = 0
KTH1 132333Z 15007KT 12/06 A3029 RMK A01 T01180059  RH  067%=      5-min Rain = 0
KTH1 132334Z 14006KT 12/06 A3029 RMK A01 T01170059  RH  067%=      5-min Rain = 0
KTH1 132335Z 13006KT 12/06 A3029 RMK A01 T01160059  RH  068%=      5-min Rain = 0
KTH1 132336Z 13006KT 12/06 A3029 RMK A01 T01160058  RH  068%=      5-min Rain = 0
KTH1 132337Z 12004KT 12/06 A3029 RMK A01 T01150058  RH  068%=      5-min Rain = 0
KTH1 132338Z 13004KT 12/06 A3029 RMK A01 T01150058  RH  068%=      5-min Rain = 0
KTH1 132339Z 14005KT 12/06 A3029 RMK A01 T01150058  RH  068%=      5-min Rain = 0
KTH1 132340Z 13007KT 11/06 A3029 RMK A01 T01140057  RH  068%=      5-min Rain = 0
KTH1 132341Z 13007KT 11/06 A3029 RMK A01 T01140058  RH  068%=      5-min Rain = 0
KTH1 132342Z 13008KT 11/06 A3029 RMK A01 T01140058  RH  069%=      5-min Rain = 0
KTH1 132343Z 13007KT 11/06 A3029 RMK A01 T01140058  RH  069%=      5-min Rain = 0
KTH1 132344Z 12007KT 11/06 A3029 RMK A01 T01140058  RH  069%=      5-min Rain = 0
KTH1 132345Z 12007KT 11/06 A3029 RMK A01 T01140058  RH  069%=      5-min Rain = 0
KTH1 132346Z 11007KT 11/06 A3029 RMK A01 T01140059  RH  069%=      5-min Rain = 0
KTH1 132347Z 11006KT 11/06 A3029 RMK A01 T01130058  RH  069%=      5-min Rain = 0
KTH1 132348Z 11006KT 11/06 A3029 RMK A01 T01130058  RH  069%=      5-min Rain = 0
KTH1 132349Z 11008KT 11/06 A3029 RMK A01 T01130059  RH  069%=      5-min Rain = 0
KTH1 132350Z 12005KT 11/06 A303 RMK A01 T01130058  RH  069%=      5-min Rain = 0
KTH1 132351Z 12007KT 11/06 A303 RMK A01 T01130059  RH  069%=      5-min Rain = 0
KTH1 132352Z 12008KT 11/06 A3029 RMK A01 T01130059  RH  069%=      5-min Rain = 0
KTH1 132353Z 11007KT 11/06 A3029 RMK A01 T01120059  RH  070%=      5-min Rain = 0
KTH1 132354Z 11007KT 11/06 A3029 RMK A01 T01120059  RH  070%=      5-min Rain = 0
KTH1 132355Z 11006KT 11/06 A3029 RMK A01 T01120059  RH  070%=      5-min Rain = 0
KTH1 132356Z 11006KT 11/06 A3029 RMK A01 T01120059  RH  070%=      5-min Rain = 0
KTH1 132357Z 10006KT 11/06 A3029 RMK A01 T01110058  RH  069%=      5-min Rain = 0
KTH1 132358Z 09006KT 11/06 A3029 RMK A01 T01110055  RH  068%=      5-min Rain = 0
KTH1 132359Z 09007KT 11/05 A3029 RMK A01 T01100052  RH  068%=      5-min Rain = 0
KTH1 140000Z 09007KT 11/05 A3029 RMK A01 T01090052  RH  068%=      5-min Rain = 0
KTH1 140001Z 10008KT 11/05 A3029 RMK A01 T01080052  RH  068%=      5-min Rain = 0
KTH1 140002Z 11005KT 11/05 A3029 RMK A01 T01070054  RH  069%=      5-min Rain = 0
KTH1 140003Z 11006KT 11/05 A3029 RMK A01 T01070053  RH  069%=      5-min Rain = 0
KTH1 140004Z 11007KT 11/05 A3029 RMK A01 T01070053  RH  069%=      5-min Rain = 0
KTH1 140005Z 11008KT 11/06 A3029 RMK A01 T01070055  RH  070%=      5-min Rain = 0
KTH1 140006Z 11008KT 11/06 A3029 RMK A01 T01070055  RH  071%=      5-min Rain = 0
KTH1 140007Z 11007KT 11/06 A3029 RMK A01 T01060055  RH  071%=      5-min Rain = 0
KTH1 140008Z 11005KT 11/06 A3029 RMK A01 T01060055  RH  071%=      5-min Rain = 0
KTH1 140009Z 12007KT 11/06 A3029 RMK A01 T01060055  RH  071%=      5-min Rain = 0
KTH1 140010Z 12008KT 11/06 A3029 RMK A01 T01050055  RH  071%=      5-min Rain = 0
KTH1 140011Z 12008KT 10/06 A3029 RMK A01 T01040056  RH  072%=      5-min Rain = 0
KTH1 140012Z 12007KT 10/06 A3029 RMK A01 T01040056  RH  072%=      5-min Rain = 0
KTH1 140013Z 11007KT 10/06 A3029 RMK A01 T01030056  RH  072%=      5-min Rain = 0
KTH1 140014Z 12008KT 10/06 A3029 RMK A01 T01030056  RH  072%=      5-min Rain = 0
KTH1 140015Z 12008KT 10/06 A3029 RMK A01 T01030056  RH  073%=      5-min Rain = 0
KTH1 140016Z 12007KT 10/06 A3029 RMK A01 T01020055  RH  073%=      5-min Rain = 0
KTH1 140017Z 12008KT 10/06 A3029 RMK A01 T01020055  RH  073%=      5-min Rain = 0
KTH1 140018Z 12008KT 10/05 A3029 RMK A01 T01010054  RH  073%=      5-min Rain = 0
KTH1 140019Z 12008KT 10/05 A3029 RMK A01 T01000054  RH  073%=      5-min Rain = 0
KTH1 140020Z 12010KT 10/05 A3029 RMK A01 T00990054  RH  073%=      5-min Rain = 0
KTH1 140021Z 12009KT 10/05 A3029 RMK A01 T00990054  RH  073%=      5-min Rain = 0
KTH1 140022Z 12008KT 10/05 A3029 RMK A01 T00980053  RH  074%=      5-min Rain = 0
KTH1 140023Z 12008KT 10/05 A3028 RMK A01 T00980053  RH  074%=      5-min Rain = 0
KTH1 140024Z 12008KT 10/05 A3028 RMK A01 T00970053  RH  074%=      5-min Rain = 0
KTH1 140025Z 13008KT 10/05 A3028 RMK A01 T00960053  RH  074%=      5-min Rain = 0
KTH1 140026Z 12008KT 10/05 A3028 RMK A01 T00950052  RH  074%=      5-min Rain = 0
KTH1 140027Z 12008KT 10/05 A3028 RMK A01 T00950052  RH  075%=      5-min Rain = 0
KTH1 140028Z 12009KT 10/05 A3028 RMK A01 T00950053  RH  075%=      5-min Rain = 0
KTH1 140029Z 13009KT 09/05 A3028 RMK A01 T00940053  RH  075%=      5-min Rain = 0
KTH1 140030Z 13008KT 09/05 A3028 RMK A01 T00940053  RH  075%=      5-min Rain = 0
KTH1 140031Z 12008KT 09/05 A3028 RMK A01 T00940053  RH  075%=      5-min Rain = 0
KTH1 140032Z 12008KT 09/05 A3028 RMK A01 T00930052  RH  076%=      5-min Rain = 0
KTH1 140033Z 12008KT 09/05 A3028 RMK A01 T00930052  RH  076%=      5-min Rain = 0
KTH1 140034Z 12008KT 09/05 A3028 RMK A01 T00920052  RH  076%=      5-min Rain = 0
KTH1 140035Z 12007KT 09/05 A3028 RMK A01 T00920052  RH  076%=      5-min Rain = 0
KTH1 140036Z 12009KT 09/05 A3028 RMK A01 T00910051  RH  076%=      5-min Rain = 0
KTH1 140037Z 12009KT 09/05 A3028 RMK A01 T00910051  RH  076%=      5-min Rain = 0
KTH1 140038Z 12009KT 09/05 A3028 RMK A01 T00900051  RH  076%=      5-min Rain = 0
KTH1 140039Z 12007KT 09/05 A3028 RMK A01 T00900050  RH  076%=      5-min Rain = 0
KTH1 140040Z 12007KT 09/05 A3028 RMK A01 T00890050  RH  076%=      5-min Rain = 0
KTH1 140041Z 12007KT 09/05 A3028 RMK A01 T00880049  RH  076%=      5-min Rain = 0
KTH1 140042Z 12010KT 09/05 A3028 RMK A01 T00880050  RH  077%=      5-min Rain = 0
KTH1 140043Z 12009KT 09/05 A3028 RMK A01 T00880050  RH  077%=      5-min Rain = 0
KTH1 140044Z 12007KT 09/05 A3029 RMK A01 T00870049  RH  077%=      5-min Rain = 0
KTH1 140045Z 13008KT 09/05 A3029 RMK A01 T00870048  RH  077%=      5-min Rain = 0
KTH1 140046Z 12008KT 09/05 A3029 RMK A01 T00860048  RH  077%=      5-min Rain = 0
KTH1 140047Z 13009KT 09/05 A3029 RMK A01 T00850048  RH  077%=      5-min Rain = 0
KTH1 140048Z 12008KT 09/05 A3029 RMK A01 T00850048  RH  078%=      5-min Rain = 0
KTH1 140049Z 12006KT 08/05 A3029 RMK A01 T00840048  RH  078%=      5-min Rain = 0
KTH1 140050Z 12007KT 08/05 A3029 RMK A01 T00840048  RH  078%=      5-min Rain = 0
KTH1 140051Z 12007KT 08/05 A3029 RMK A01 T00830048  RH  078%=      5-min Rain = 0
KTH1 140052Z 11005KT 08/05 A3029 RMK A01 T00830047  RH  078%=      5-min Rain = 0
KTH1 140053Z 11006KT 08/05 A3029 RMK A01 T00830048  RH  079%=      5-min Rain = 0
KTH1 140054Z 10005KT 08/05 A3029 RMK A01 T00820048  RH  079%=      5-min Rain = 0
KTH1 140055Z 10006KT 08/05 A3029 RMK A01 T00820047  RH  079%=      5-min Rain = 0
KTH1 140056Z 10006KT 08/05 A3029 RMK A01 T00810047  RH  079%=      5-min Rain = 0
KTH1 140057Z 10005KT 08/05 A3029 RMK A01 T00810047  RH  079%=      5-min Rain = 0
KTH1 140058Z 10007KT 08/05 A3029 RMK A01 T00810048  RH  079%=      5-min Rain = 0
KTH1 140059Z 10006KT 08/05 A3029 RMK A01 T00810048  RH  079%=      5-min Rain = 0
KTH1 140100Z 10006KT 08/05 A3029 RMK A01 T00810048  RH  080%=      5-min Rain = 0
KTH1 140101Z 10007KT 08/05 A3029 RMK A01 T00810048  RH  080%=      5-min Rain = 0
KTH1 140102Z 10006KT 08/05 A3029 RMK A01 T00810047  RH  080%=      5-min Rain = 0
KTH1 140103Z 10006KT 08/05 A3029 RMK A01 T00800047  RH  080%=      5-min Rain = 0
KTH1 140104Z 11007KT 08/05 A3029 RMK A01 T00800047  RH  080%=      5-min Rain = 0
KTH1 140105Z 11006KT 08/05 A3029 RMK A01 T00800047  RH  080%=      5-min Rain = 0
KTH1 140106Z 11006KT 08/05 A3029 RMK A01 T00800047  RH  080%=      5-min Rain = 0
KTH1 140107Z 12006KT 08/05 A3029 RMK A01 T00790047  RH  080%=      5-min Rain = 0
KTH1 140108Z 11006KT 08/05 A3029 RMK A01 T00790046  RH  080%=      5-min Rain = 0
KTH1 140109Z 12006KT 08/05 A3029 RMK A01 T00780046  RH  080%=      5-min Rain = 0
KTH1 140110Z 11006KT 08/05 A3029 RMK A01 T00780046  RH  080%=      5-min Rain = 0
KTH1 140111Z 12005KT 08/05 A3029 RMK A01 T00780046  RH  081%=      5-min Rain = 0
KTH1 140112Z 12008KT 08/05 A3029 RMK A01 T00770046  RH  081%=      5-min Rain = 0
KTH1 140113Z 13006KT 08/05 A3029 RMK A01 T00770046  RH  081%=      5-min Rain = 0
KTH1 140114Z 12006KT 08/05 A3029 RMK A01 T00770046  RH  081%=      5-min Rain = 0
KTH1 140115Z 13006KT 08/05 A3029 RMK A01 T00760045  RH  081%=      5-min Rain = 0
KTH1 140116Z 13006KT 08/05 A3028 RMK A01 T00760046  RH  081%=      5-min Rain = 0
KTH1 140117Z 13007KT 08/05 A3028 RMK A01 T00750045  RH  081%=      5-min Rain = 0
KTH1 140118Z 12005KT 08/05 A3028 RMK A01 T00750045  RH  081%=      5-min Rain = 0
KTH1 140119Z 13007KT 08/05 A3028 RMK A01 T00750045  RH  082%=      5-min Rain = 0
KTH1 140120Z 13008KT 08/05 A3028 RMK A01 T00750046  RH  082%=      5-min Rain = 0
KTH1 140121Z 12006KT 08/05 A3028 RMK A01 T00750046  RH  082%=      5-min Rain = 0
KTH1 140122Z 12006KT 07/05 A3029 RMK A01 T00740045  RH  082%=      5-min Rain = 0
KTH1 140123Z 12006KT 07/05 A3029 RMK A01 T00730045  RH  082%=      5-min Rain = 0
KTH1 140124Z 12006KT 07/04 A3029 RMK A01 T00730044  RH  082%=      5-min Rain = 0
KTH1 140125Z 12006KT 07/05 A3029 RMK A01 T00730045  RH  082%=      5-min Rain = 0
KTH1 140126Z 12006KT 07/05 A3029 RMK A01 T00720045  RH  083%=      5-min Rain = 0
KTH1 140127Z 12007KT 07/05 A3029 RMK A01 T00720045  RH  083%=      5-min Rain = 0
KTH1 140128Z 12006KT 07/05 A3029 RMK A01 T00720045  RH  083%=      5-min Rain = 0
KTH1 140129Z 13005KT 07/05 A3029 RMK A01 T00720045  RH  083%=      5-min Rain = 0
KTH1 140130Z 12005KT 07/04 A3029 RMK A01 T00710044  RH  083%=      5-min Rain = 0
KTH1 140131Z 12006KT 07/04 A3029 RMK A01 T00710044  RH  083%=      5-min Rain = 0
KTH1 140132Z 11006KT 07/04 A3029 RMK A01 T00700044  RH  084%=      5-min Rain = 0
KTH1 140133Z 12005KT 07/05 A3029 RMK A01 T00700045  RH  084%=      5-min Rain = 0
KTH1 140134Z 12006KT 07/04 A3029 RMK A01 T00700044  RH  084%=      5-min Rain = 0
KTH1 140135Z 12006KT 07/04 A3029 RMK A01 T00690044  RH  084%=      5-min Rain = 0
KTH1 140136Z 12007KT 07/04 A3029 RMK A01 T00700044  RH  084%=      5-min Rain = 0
KTH1 140137Z 12006KT 07/05 A3029 RMK A01 T00700045  RH  084%=      5-min Rain = 0
KTH1 140138Z 13007KT 07/04 A3029 RMK A01 T00690044  RH  084%=      5-min Rain = 0
KTH1 140139Z 13007KT 07/04 A3029 RMK A01 T00690044  RH  084%=      5-min Rain = 0
KTH1 140140Z 13007KT 07/04 A3029 RMK A01 T00690044  RH  084%=      5-min Rain = 0
KTH1 140141Z 13007KT 07/04 A3029 RMK A01 T00690044  RH  084%=      5-min Rain = 0
KTH1 140142Z 13007KT 07/04 A3028 RMK A01 T00690044  RH  084%=      5-min Rain = 0
KTH1 140143Z 13007KT 07/05 A3029 RMK A01 T00690045  RH  084%=      5-min Rain = 0
KTH1 140144Z 13007KT 07/04 A3029 RMK A01 T00690044  RH  084%=      5-min Rain = 0
KTH1 140145Z 13007KT 07/04 A3029 RMK A01 T00690044  RH  084%=      5-min Rain = 0
KTH1 140146Z 13006KT 07/04 A3029 RMK A01 T00690044  RH  084%=      5-min Rain = 0
KTH1 140147Z 14006KT 07/04 A3029 RMK A01 T00690044  RH  084%=      5-min Rain = 0
KTH1 140148Z 14006KT 07/04 A3029 RMK A01 T00680044  RH  084%=      5-min Rain = 0
KTH1 140149Z 14007KT 07/04 A3029 RMK A01 T00680044  RH  085%=      5-min Rain = 0
KTH1 140150Z 13006KT 07/04 A3029 RMK A01 T00680044  RH  085%=      5-min Rain = 0
KTH1 140151Z 14006KT 07/04 A3029 RMK A01 T00680044  RH  085%=      5-min Rain = 0
KTH1 140152Z 14007KT 07/04 A3029 RMK A01 T00680044  RH  085%=      5-min Rain = 0
KTH1 140153Z 14006KT 07/04 A3029 RMK A01 T00680044  RH  085%=      5-min Rain = 0
KTH1 140154Z 13006KT 07/04 A3029 RMK A01 T00680044  RH  085%=      5-min Rain = 0
KTH1 140155Z 14007KT 07/04 A3029 RMK A01 T00680044  RH  085%=      5-min Rain = 0
KTH1 140156Z 13006KT 07/05 A3029 RMK A01 T00680045  RH  085%=      5-min Rain = 0
KTH1 140157Z 13006KT 07/04 A3029 RMK A01 T00680044  RH  085%=      5-min Rain = 0
KTH1 140158Z 13005KT 07/05 A3029 RMK A01 T00680045  RH  085%=      5-min Rain = 0
KTH1 140159Z 13005KT 07/05 A3029 RMK A01 T00680045  RH  085%=      5-min Rain = 0
KTH1 140200Z 12004KT 07/04 A3029 RMK A01 T00680044  RH  085%=      5-min Rain = 0
KTH1 140201Z 12006KT 07/05 A3029 RMK A01 T00680045  RH  085%=      5-min Rain = 0
KTH1 140202Z 12005KT 07/05 A3029 RMK A01 T00680045  RH  085%=      5-min Rain = 0
KTH1 140203Z 13006KT 07/05 A3029 RMK A01 T00680045  RH  085%=      5-min Rain = 0
KTH1 140204Z 13003KT 07/05 A3029 RMK A01 T00680045  RH  085%=      5-min Rain = 0
KTH1 140205Z 12004KT 07/05 A3029 RMK A01 T00680045  RH  085%=      5-min Rain = 0
KTH1 140206Z 13004KT 07/05 A3029 RMK A01 T00680045  RH  085%=      5-min Rain = 0
KTH1 140207Z 14004KT 07/05 A3029 RMK A01 T00680045  RH  085%=      5-min Rain = 0
KTH1 140208Z 13005KT 07/05 A3029 RMK A01 T00680045  RH  086%=      5-min Rain = 0
KTH1 140209Z 13006KT 07/05 A3029 RMK A01 T00680045  RH  085%=      5-min Rain = 0
KTH1 140210Z 14005KT 07/05 A3029 RMK A01 T00680046  RH  085%=      5-min Rain = 0
KTH1 140211Z 14006KT 07/05 A3029 RMK A01 T00680046  RH  086%=      5-min Rain = 0
KTH1 140212Z 13007KT 07/05 A3029 RMK A01 T00680045  RH  085%=      5-min Rain = 0
KTH1 140213Z 14007KT 07/05 A3029 RMK A01 T00680046  RH  085%=      5-min Rain = 0
KTH1 140214Z 14006KT 07/05 A3029 RMK A01 T00680045  RH  085%=      5-min Rain = 0
KTH1 140215Z 13006KT 07/05 A3029 RMK A01 T00680045  RH  085%=      5-min Rain = 0
KTH1 140216Z 14005KT 07/05 A3029 RMK A01 T00680045  RH  086%=      5-min Rain = 0
KTH1 140217Z 14006KT 07/05 A3029 RMK A01 T00680046  RH  086%=      5-min Rain = 0
KTH1 140218Z 13005KT 07/05 A3029 RMK A01 T00680046  RH  086%=      5-min Rain = 0
KTH1 140219Z 14005KT 07/05 A3029 RMK A01 T00680046  RH  086%=      5-min Rain = 0
KTH1 140220Z 13005KT 07/05 A3029 RMK A01 T00680046  RH  086%=      5-min Rain = 0
KTH1 140221Z 14006KT 07/05 A3029 RMK A01 T00670046  RH  086%=      5-min Rain = 0
KTH1 140222Z 13005KT 07/05 A3029 RMK A01 T00670046  RH  086%=      5-min Rain = 0
KTH1 140223Z 13007KT 07/05 A3029 RMK A01 T00670046  RH  086%=      5-min Rain = 0
KTH1 140224Z 13006KT 07/05 A3029 RMK A01 T00670046  RH  086%=      5-min Rain = 0
KTH1 140225Z 13006KT 07/05 A3029 RMK A01 T00670046  RH  086%=      5-min Rain = 0
KTH1 140226Z 13006KT 07/05 A3029 RMK A01 T00670046  RH  086%=      5-min Rain = 0
KTH1 140227Z 12004KT 07/05 A3029 RMK A01 T00670046  RH  086%=      5-min Rain = 0
KTH1 140228Z 13003KT 07/05 A3029 RMK A01 T00670046  RH  086%=      5-min Rain = 0
KTH1 140229Z 11005KT 07/05 A3029 RMK A01 T00670046  RH  086%=      5-min Rain = 0
KTH1 140230Z 13004KT 07/05 A3029 RMK A01 T00660045  RH  086%=      5-min Rain = 0
KTH1 140231Z 12004KT 07/05 A3029 RMK A01 T00660045  RH  087%=      5-min Rain = 0
KTH1 140232Z 11004KT 07/05 A3029 RMK A01 T00660046  RH  087%=      5-min Rain = 0
KTH1 140233Z 12005KT 07/05 A3029 RMK A01 T00660045  RH  087%=      5-min Rain = 0
KTH1 140234Z 12004KT 07/05 A3029 RMK A01 T00660045  RH  087%=      5-min Rain = 0
KTH1 140235Z 12005KT 07/05 A3029 RMK A01 T00660046  RH  087%=      5-min Rain = 0
KTH1 140236Z 11004KT 07/05 A3029 RMK A01 T00650045  RH  087%=      5-min Rain = 0
KTH1 140237Z 11003KT 07/05 A3029 RMK A01 T00650045  RH  087%=      5-min Rain = 0
KTH1 140238Z 11004KT 07/05 A3029 RMK A01 T00650045  RH  087%=      5-min Rain = 0
KTH1 140239Z 12004KT 07/05 A3029 RMK A01 T00650045  RH  087%=      5-min Rain = 0
KTH1 140240Z 13006KT 07/05 A3029 RMK A01 T00650045  RH  087%=      5-min Rain = 0
KTH1 140241Z 12006KT 06/05 A303 RMK A01 T00640045  RH  088%=      5-min Rain = 0
KTH1 140242Z 13005KT 07/05 A3029 RMK A01 T00650046  RH  088%=      5-min Rain = 0
KTH1 140243Z 12005KT 07/05 A3029 RMK A01 T00650046  RH  088%=      5-min Rain = 0
KTH1 140244Z 12005KT 07/05 A3029 RMK A01 T00650046  RH  088%=      5-min Rain = 0
KTH1 140245Z 12005KT 07/05 A3029 RMK A01 T00650046  RH  088%=      5-min Rain = 0
KTH1 140246Z 13005KT 07/05 A3029 RMK A01 T00650046  RH  088%=      5-min Rain = 0
KTH1 140247Z 13005KT 07/05 A3029 RMK A01 T00650046  RH  088%=      5-min Rain = 0
KTH1 140248Z 13006KT 07/05 A3029 RMK A01 T00650046  RH  088%=      5-min Rain = 0
KTH1 140249Z 13005KT 07/05 A3029 RMK A01 T00650047  RH  088%=      5-min Rain = 0
KTH1 140250Z 14007KT 07/05 A3029 RMK A01 T00650047  RH  088%=      5-min Rain = 0
KTH1 140251Z 14005KT 07/05 A3029 RMK A01 T00650047  RH  088%=      5-min Rain = 0
KTH1 140252Z 13007KT 07/05 A303 RMK A01 T00650047  RH  088%=      5-min Rain = 0
KTH1 140253Z 14007KT 07/05 A303 RMK A01 T00660047  RH  088%=      5-min Rain = 0
KTH1 140254Z 13007KT 07/05 A303 RMK A01 T00650047  RH  088%=      5-min Rain = 0
KTH1 140255Z 13006KT 07/05 A3029 RMK A01 T00660047  RH  088%=      5-min Rain = 0
KTH1 140256Z 13006KT 07/05 A3029 RMK A01 T00660047  RH  088%=      5-min Rain = 0
KTH1 140257Z 13006KT 07/05 A3029 RMK A01 T00660047  RH  088%=      5-min Rain = 0
KTH1 140258Z 13006KT 07/05 A3029 RMK A01 T00650047  RH  088%=      5-min Rain = 0
KTH1 140259Z 12005KT 07/05 A3029 RMK A01 T00660047  RH  088%=      5-min Rain = 0
KTH1 140300Z 13005KT 07/05 A3029 RMK A01 T00650046  RH  088%=      5-min Rain = 0
KTH1 140301Z 12005KT 07/05 A3029 RMK A01 T00650046  RH  088%=      5-min Rain = 0
KTH1 140302Z 12004KT 06/05 A3029 RMK A01 T00640046  RH  088%=      5-min Rain = 0
KTH1 140303Z 13005KT 06/05 A3029 RMK A01 T00640046  RH  088%=      5-min Rain = 0
KTH1 140304Z 14005KT 06/05 A303 RMK A01 T00640046  RH  089%=      5-min Rain = 0
KTH1 140305Z 13004KT 06/05 A303 RMK A01 T00640046  RH  089%=      5-min Rain = 0
KTH1 140306Z 14004KT 06/05 A303 RMK A01 T00640046  RH  089%=      5-min Rain = 0
KTH1 140307Z 13005KT 06/05 A303 RMK A01 T00630046  RH  089%=      5-min Rain = 0
KTH1 140308Z 13005KT 06/05 A303 RMK A01 T00630045  RH  089%=      5-min Rain = 0
KTH1 140309Z 12005KT 06/05 A303 RMK A01 T00630046  RH  089%=      5-min Rain = 0
KTH1 140310Z 12005KT 06/05 A3029 RMK A01 T00630046  RH  089%=      5-min Rain = 0
KTH1 140311Z 13004KT 06/05 A3029 RMK A01 T00630046  RH  089%=      5-min Rain = 0
KTH1 140312Z 12005KT 06/05 A303 RMK A01 T00620046  RH  089%=      5-min Rain = 0
KTH1 140313Z 13005KT 06/05 A303 RMK A01 T00620046  RH  089%=      5-min Rain = 0
KTH1 140314Z 13005KT 06/05 A303 RMK A01 T00620046  RH  089%=      5-min Rain = 0
KTH1 140315Z 13005KT 06/05 A303 RMK A01 T00620045  RH  089%=      5-min Rain = 0
KTH1 140316Z 13004KT 06/05 A303 RMK A01 T00610045  RH  089%=      5-min Rain = 0
KTH1 140317Z 13005KT 06/05 A3029 RMK A01 T00610045  RH  089%=      5-min Rain = 0
KTH1 140318Z 13006KT 06/05 A3029 RMK A01 T00610045  RH  090%=      5-min Rain = 0
KTH1 140319Z 13005KT 06/05 A3029 RMK A01 T00610045  RH  090%=      5-min Rain = 0
KTH1 140320Z 13005KT 06/05 A3029 RMK A01 T00610045  RH  090%=      5-min Rain = 0
KTH1 140321Z 14005KT 06/05 A3029 RMK A01 T00610045  RH  090%=      5-min Rain = 0
KTH1 140322Z 13004KT 06/05 A3029 RMK A01 T00600045  RH  090%=      5-min Rain = 0
KTH1 140323Z 13005KT 06/05 A3029 RMK A01 T00610045  RH  090%=      5-min Rain = 0
KTH1 140324Z 13006KT 06/05 A3029 RMK A01 T00600045  RH  090%=      5-min Rain = 0
KTH1 140325Z 13005KT 06/05 A3029 RMK A01 T00600045  RH  090%=      5-min Rain = 0
KTH1 140326Z 13004KT 06/05 A3029 RMK A01 T00600045  RH  090%=      5-min Rain = 0
KTH1 140327Z 13005KT 06/05 A3029 RMK A01 T00600045  RH  090%=      5-min Rain = 0
KTH1 140328Z 13005KT 06/05 A3029 RMK A01 T00600045  RH  090%=      5-min Rain = 0
KTH1 140329Z 13006KT 06/05 A3029 RMK A01 T00600045  RH  090%=      5-min Rain = 0
KTH1 140330Z 14006KT 06/05 A3029 RMK A01 T00600045  RH  090%=      5-min Rain = 0
KTH1 140331Z 14006KT 06/05 A3029 RMK A01 T00590045  RH  090%=      5-min Rain = 0
KTH1 140332Z 15005KT 06/05 A3029 RMK A01 T00600045  RH  090%=      5-min Rain = 0
KTH1 140333Z 14005KT 06/04 A3029 RMK A01 T00590044  RH  090%=      5-min Rain = 0
KTH1 140334Z 14005KT 06/04 A3029 RMK A01 T00590044  RH  090%=      5-min Rain = 0
KTH1 140335Z 14005KT 06/04 A3029 RMK A01 T00580044  RH  090%=      5-min Rain = 0
KTH1 140336Z 14007KT 06/04 A3029 RMK A01 T00580044  RH  090%=      5-min Rain = 0
KTH1 140337Z 14007KT 06/04 A3029 RMK A01 T00580044  RH  091%=      5-min Rain = 0
KTH1 140338Z 14006KT 06/05 A3029 RMK A01 T00580045  RH  091%=      5-min Rain = 0
KTH1 140339Z 14007KT 06/05 A3029 RMK A01 T00590045  RH  091%=      5-min Rain = 0
KTH1 140340Z 14006KT 06/05 A3029 RMK A01 T00590045  RH  091%=      5-min Rain = 0
KTH1 140341Z 14006KT 06/04 A3029 RMK A01 T00580044  RH  091%=      5-min Rain = 0
KTH1 140342Z 14006KT 06/04 A3029 RMK A01 T00580044  RH  090%=      5-min Rain = 0
KTH1 140343Z 14006KT 06/04 A3029 RMK A01 T00580043  RH  090%=      5-min Rain = 0
KTH1 140344Z 14006KT 06/04 A3029 RMK A01 T00580044  RH  091%=      5-min Rain = 0
KTH1 140345Z 14006KT 06/04 A3029 RMK A01 T00570044  RH  091%=      5-min Rain = 0
KTH1 140346Z 15005KT 06/04 A3029 RMK A01 T00570044  RH  091%=      5-min Rain = 0
KTH1 140347Z 15004KT 06/04 A3029 RMK A01 T00570043  RH  091%=      5-min Rain = 0
KTH1 140348Z 14004KT 06/04 A3029 RMK A01 T00570043  RH  091%=      5-min Rain = 0
KTH1 140349Z 15005KT 06/04 A3029 RMK A01 T00560043  RH  091%=      5-min Rain = 0
KTH1 140350Z 15004KT 06/04 A3029 RMK A01 T00560043  RH  091%=      5-min Rain = 0
KTH1 140351Z 15004KT 06/04 A3029 RMK A01 T00560043  RH  091%=      5-min Rain = 0
KTH1 140352Z 15005KT 06/04 A3029 RMK A01 T00560044  RH  092%=      5-min Rain = 0
KTH1 140353Z 15004KT 06/04 A3029 RMK A01 T00560044  RH  092%=      5-min Rain = 0
KTH1 140354Z 15005KT 06/04 A3029 RMK A01 T00560044  RH  092%=      5-min Rain = 0
KTH1 140355Z 15004KT 06/04 A3029 RMK A01 T00560044  RH  092%=      5-min Rain = 0
KTH1 140356Z 15004KT 06/04 A3029 RMK A01 T00560043  RH  092%=      5-min Rain = 0
KTH1 140357Z 15004KT 06/04 A303 RMK A01 T00560043  RH  092%=      5-min Rain = 0
KTH1 140358Z 15004KT 06/04 A303 RMK A01 T00550043  RH  092%=      5-min Rain = 0
KTH1 140359Z 15004KT 06/04 A303 RMK A01 T00550042  RH  092%=      5-min Rain = 0
KTH1 140400Z 15005KT 06/04 A303 RMK A01 T00550042  RH  092%=      5-min Rain = 0
KTH1 140401Z 14004KT 06/04 A303 RMK A01 T00550043  RH  092%=      5-min Rain = 0
KTH1 140402Z 14003KT 06/04 A303 RMK A01 T00550043  RH  092%=      5-min Rain = 0
KTH1 140403Z 14004KT 06/04 A303 RMK A01 T00550043  RH  092%=      5-min Rain = 0
KTH1 140404Z 14004KT 05/04 A3029 RMK A01 T00540042  RH  092%=      5-min Rain = 0
KTH1 140405Z 15004KT 06/04 A3029 RMK A01 T00550043  RH  092%=      5-min Rain = 0
KTH1 140406Z 14004KT 06/04 A3029 RMK A01 T00550043  RH  092%=      5-min Rain = 0
KTH1 140407Z 14004KT 06/04 A3029 RMK A01 T00550043  RH  092%=      5-min Rain = 0
KTH1 140408Z 14004KT 05/04 A3029 RMK A01 T00540042  RH  092%=      5-min Rain = 0
KTH1 140409Z 14004KT 05/04 A3029 RMK A01 T00540042  RH  092%=      5-min Rain = 0
KTH1 140410Z 14004KT 05/04 A303 RMK A01 T00540042  RH  092%=      5-min Rain = 0
KTH1 140411Z 14004KT 05/04 A303 RMK A01 T00540043  RH  092%=      5-min Rain = 0
KTH1 140412Z 15005KT 05/04 A303 RMK A01 T00540042  RH  092%=      5-min Rain = 0
KTH1 140413Z 14005KT 05/04 A303 RMK A01 T00540042  RH  092%=      5-min Rain = 0
KTH1 140414Z 15004KT 05/04 A303 RMK A01 T00540043  RH  092%=      5-min Rain = 0
KTH1 140415Z 15004KT 05/04 A303 RMK A01 T00540043  RH  092%=      5-min Rain = 0
KTH1 140416Z 15004KT 05/04 A303 RMK A01 T00540042  RH  092%=      5-min Rain = 0
KTH1 140417Z 15005KT 05/04 A303 RMK A01 T00540042  RH  092%=      5-min Rain = 0
KTH1 140418Z 14004KT 05/04 A303 RMK A01 T00530042  RH  092%=      5-min Rain = 0
KTH1 140419Z 14004KT 05/04 A3029 RMK A01 T00530042  RH  092%=      5-min Rain = 0
KTH1 140420Z 15004KT 05/04 A303 RMK A01 T00530042  RH  093%=      5-min Rain = 0
KTH1 140421Z 14005KT 05/04 A3029 RMK A01 T00530042  RH  093%=      5-min Rain = 0
KTH1 140422Z 14006KT 05/04 A3029 RMK A01 T00530042  RH  093%=      5-min Rain = 0
KTH1 140423Z 14007KT 05/04 A3029 RMK A01 T00530043  RH  093%=      5-min Rain = 0
KTH1 140424Z 14006KT 05/04 A3029 RMK A01 T00540044  RH  093%=      5-min Rain = 0
KTH1 140425Z 14005KT 05/04 A3029 RMK A01 T00540044  RH  093%=      5-min Rain = 0
KTH1 140426Z 14006KT 06/04 A3029 RMK A01 T00550044  RH  093%=      5-min Rain = 0
KTH1 140427Z 14006KT 06/04 A3029 RMK A01 T00550044  RH  093%=      5-min Rain = 0
KTH1 140428Z 14006KT 06/04 A3029 RMK A01 T00550044  RH  093%=      5-min Rain = 0
KTH1 140429Z 15006KT 06/05 A3029 RMK A01 T00560045  RH  093%=      5-min Rain = 0
KTH1 140430Z 15006KT 06/05 A3029 RMK A01 T00560045  RH  093%=      5-min Rain = 0
KTH1 140431Z 15006KT 06/05 A3029 RMK A01 T00570046  RH  093%=      5-min Rain = 0
KTH1 140432Z 14006KT 06/05 A3029 RMK A01 T00570047  RH  093%=      5-min Rain = 0
KTH1 140433Z 15007KT 06/05 A3029 RMK A01 T00580047  RH  093%=      5-min Rain = 0
KTH1 140434Z 15006KT 06/05 A3028 RMK A01 T00590048  RH  093%=      5-min Rain = 0
KTH1 140435Z 15007KT 06/05 A3028 RMK A01 T00600049  RH  093%=      5-min Rain = 0
KTH1 140436Z 15007KT 06/05 A3028 RMK A01 T00610050  RH  093%=      5-min Rain = 0
KTH1 140437Z 15007KT 06/05 A3028 RMK A01 T00610050  RH  093%=      5-min Rain = 0
KTH1 140438Z 15008KT 06/05 A3029 RMK A01 T00630051  RH  092%=      5-min Rain = 0
KTH1 140439Z 16007KT 06/05 A3029 RMK A01 T00640052  RH  092%=      5-min Rain = 0
KTH1 140440Z 16007KT 07/05 A3029 RMK A01 T00650052  RH  092%=      5-min Rain = 0
KTH1 140441Z 16007KT 07/05 A3029 RMK A01 T00650052  RH  091%=      5-min Rain = 0
KTH1 140442Z 16007KT 07/05 A3029 RMK A01 T00660052  RH  091%=      5-min Rain = 0
KTH1 140443Z 16006KT 07/05 A3028 RMK A01 T00660052  RH  091%=      5-min Rain = 0
KTH1 140444Z 16006KT 07/05 A3028 RMK A01 T00670052  RH  091%=      5-min Rain = 0
KTH1 140445Z 16006KT 07/05 A3028 RMK A01 T00670052  RH  090%=      5-min Rain = 0
KTH1 140446Z 15007KT 07/05 A3028 RMK A01 T00670052  RH  090%=      5-min Rain = 0
KTH1 140447Z 16006KT 07/05 A3028 RMK A01 T00670052  RH  090%=      5-min Rain = 0
KTH1 140448Z 16007KT 07/05 A3028 RMK A01 T00670052  RH  090%=      5-min Rain = 0
KTH1 140449Z 16008KT 07/05 A3028 RMK A01 T00670052  RH  090%=      5-min Rain = 0
KTH1 140450Z 16008KT 07/05 A3028 RMK A01 T00670052  RH  090%=      5-min Rain = 0
KTH1 140451Z 16008KT 07/05 A3028 RMK A01 T00680052  RH  090%=      5-min Rain = 0
KTH1 140452Z 16007KT 07/05 A3028 RMK A01 T00680052  RH  090%=      5-min Rain = 0
KTH1 140453Z 16008KT 07/05 A3028 RMK A01 T00680052  RH  089%=      5-min Rain = 0
KTH1 140454Z 16009KT 07/05 A3028 RMK A01 T00680052  RH  089%=      5-min Rain = 0
KTH1 140455Z 17008KT 07/05 A3028 RMK A01 T00680052  RH  089%=      5-min Rain = 0
KTH1 140456Z 16007KT 07/05 A3028 RMK A01 T00690052  RH  089%=      5-min Rain = 0
KTH1 140457Z 16007KT 07/05 A3028 RMK A01 T00690052  RH  089%=      5-min Rain = 0
KTH1 140458Z 16006KT 07/05 A3028 RMK A01 T00690052  RH  089%=      5-min Rain = 0
KTH1 140459Z 16008KT 07/05 A3028 RMK A01 T00690052  RH  089%=      5-min Rain = 0
KTH1 140500Z 15006KT 07/05 A3028 RMK A01 T00690052  RH  089%=      5-min Rain = 0
KTH1 140501Z 15007KT 07/05 A3028 RMK A01 T00690052  RH  089%=      5-min Rain = 0
KTH1 140502Z 16007KT 07/05 A3028 RMK A01 T00690052  RH  089%=      5-min Rain = 0
KTH1 140503Z 16008KT 07/05 A3028 RMK A01 T00690052  RH  089%=      5-min Rain = 0
KTH1 140504Z 16008KT 07/05 A3028 RMK A01 T00690052  RH  089%=      5-min Rain = 0
KTH1 140505Z 16007KT 07/05 A3028 RMK A01 T00690052  RH  089%=      5-min Rain = 0
KTH1 140506Z 17006KT 07/05 A3028 RMK A01 T00690052  RH  089%=      5-min Rain = 0
KTH1 140507Z 17008KT 07/05 A3028 RMK A01 T00690052  RH  089%=      5-min Rain = 0
KTH1 140508Z 17007KT 07/05 A3028 RMK A01 T00690052  RH  089%=      5-min Rain = 0
KTH1 140509Z 16008KT 07/05 A3028 RMK A01 T00690052  RH  089%=      5-min Rain = 0
KTH1 140510Z 16007KT 07/05 A3028 RMK A01 T00690053  RH  089%=      5-min Rain = 0
KTH1 140511Z 16007KT 07/05 A3028 RMK A01 T00700053  RH  089%=      5-min Rain = 0
KTH1 140512Z 16007KT 07/05 A3028 RMK A01 T00700052  RH  089%=      5-min Rain = 0
KTH1 140513Z 16008KT 07/05 A3028 RMK A01 T00700053  RH  089%=      5-min Rain = 0
KTH1 140514Z 16008KT 07/05 A3027 RMK A01 T00700053  RH  089%=      5-min Rain = 0
KTH1 140515Z 16008KT 07/05 A3027 RMK A01 T00700053  RH  089%=      5-min Rain = 0
KTH1 140516Z 15009KT 07/05 A3027 RMK A01 T00700053  RH  089%=      5-min Rain = 0
KTH1 140517Z 15009KT 07/05 A3027 RMK A01 T00700053  RH  089%=      5-min Rain = 0
KTH1 140518Z 15008KT 07/05 A3027 RMK A01 T00700053  RH  089%=      5-min Rain = 0
KTH1 140519Z 16008KT 07/05 A3027 RMK A01 T00710054  RH  089%=      5-min Rain = 0
KTH1 140520Z 16011KT 07/05 A3027 RMK A01 T00700053  RH  089%=      5-min Rain = 0
KTH1 140521Z 15009KT 07/05 A3027 RMK A01 T00710054  RH  089%=      5-min Rain = 0
KTH1 140522Z 15010KT 07/05 A3027 RMK A01 T00710054  RH  089%=      5-min Rain = 0
KTH1 140523Z 15009KT 07/05 A3027 RMK A01 T00710054  RH  089%=      5-min Rain = 0
KTH1 140524Z 16009KT 07/05 A3027 RMK A01 T00710054  RH  089%=      5-min Rain = 0
KTH1 140525Z 16009KT 07/05 A3027 RMK A01 T00710054  RH  089%=      5-min Rain = 0
KTH1 140526Z 15008KT 07/05 A3027 RMK A01 T00710054  RH  089%=      5-min Rain = 0
KTH1 140527Z 15007KT 07/05 A3027 RMK A01 T00710054  RH  089%=      5-min Rain = 0
KTH1 140528Z 15010KT 07/05 A3027 RMK A01 T00710054  RH  089%=      5-min Rain = 0
KTH1 140529Z 16008KT 07/05 A3027 RMK A01 T00710054  RH  089%=      5-min Rain = 0
KTH1 140530Z 16008KT 07/05 A3027 RMK A01 T00710054  RH  089%=      5-min Rain = 0
KTH1 140531Z 15010KT 07/05 A3027 RMK A01 T00710054  RH  089%=      5-min Rain = 0
KTH1 140532Z 15009KT 07/05 A3027 RMK A01 T00710054  RH  089%=      5-min Rain = 0
KTH1 140533Z 15008KT 07/05 A3027 RMK A01 T00710054  RH  089%=      5-min Rain = 0
KTH1 140534Z 15009KT 07/05 A3026 RMK A01 T00710054  RH  089%=      5-min Rain = 0
KTH1 140535Z 16010KT 07/05 A3026 RMK A01 T00710054  RH  089%=      5-min Rain = 0
KTH1 140536Z 15010KT 07/05 A3026 RMK A01 T00700054  RH  089%=      5-min Rain = 0
KTH1 140537Z 16009KT 07/05 A3026 RMK A01 T00700054  RH  089%=      5-min Rain = 0
KTH1 140538Z 16010KT 07/05 A3027 RMK A01 T00710054  RH  089%=      5-min Rain = 0
KTH1 140539Z 16010KT 07/05 A3027 RMK A01 T00710054  RH  089%=      5-min Rain = 0
KTH1 140540Z 16009KT 07/05 A3027 RMK A01 T00710054  RH  089%=      5-min Rain = 0
KTH1 140541Z 16009KT 07/05 A3027 RMK A01 T00710054  RH  089%=      5-min Rain = 0
KTH1 140542Z 16010KT 07/05 A3027 RMK A01 T00710054  RH  089%=      5-min Rain = 0
KTH1 140543Z 15010KT 07/06 A3027 RMK A01 T00710055  RH  089%=      5-min Rain = 0
KTH1 140544Z 16010KT 07/06 A3027 RMK A01 T00710055  RH  089%=      5-min Rain = 0
KTH1 140545Z 16009KT 07/06 A3027 RMK A01 T00710055  RH  089%=      5-min Rain = 0
KTH1 140546Z 16009KT 07/05 A3027 RMK A01 T00710054  RH  089%=      5-min Rain = 0
KTH1 140547Z 16011KT 07/05 A3027 RMK A01 T00710054  RH  089%=      5-min Rain = 0
KTH1 140548Z 16010KT 07/06 A3027 RMK A01 T00710055  RH  089%=      5-min Rain = 0
KTH1 140549Z 16010KT 07/06 A3027 RMK A01 T00710055  RH  089%=      5-min Rain = 0
KTH1 140550Z 16009KT 07/06 A3027 RMK A01 T00720055  RH  089%=      5-min Rain = 0
KTH1 140551Z 16010KT 07/06 A3027 RMK A01 T00710055  RH  089%=      5-min Rain = 0
KTH1 140552Z 16008KT 07/06 A3027 RMK A01 T00710055  RH  089%=      5-min Rain = 0
KTH1 140553Z 16010KT 07/05 A3027 RMK A01 T00710054  RH  089%=      5-min Rain = 0
KTH1 140554Z 16009KT 07/05 A3027 RMK A01 T00710054  RH  089%=      5-min Rain = 0
KTH1 140555Z 16010KT 07/06 A3027 RMK A01 T00710055  RH  089%=      5-min Rain = 0
KTH1 140556Z 16011KT 07/06 A3027 RMK A01 T00700055  RH  090%=      5-min Rain = 0
KTH1 140557Z 16011KT 07/06 A3027 RMK A01 T00710055  RH  090%=      5-min Rain = 0
KTH1 140558Z 16010KT 07/06 A3027 RMK A01 T00710055  RH  090%=      5-min Rain = 0
KTH1 140559Z 16011KT 07/06 A3027 RMK A01 T00710055  RH  090%=      5-min Rain = 0

Page generated in 0.0983 seconds.